Time,TemperatureF,DewpointF,PressureIn,WindDirection,WindDirectionDegrees,WindSpeedMPH,WindSpeedGustMPH,Humidity,HourlyPrecipIn,Conditions,Clouds,dailyrainin,SoftwareType,DateUTC
2013-08-29 00:00:00,68.5,62.8,29.47,WSW,249,0.0,0.0,82,0.00,,---,0.00,VWS V13.01,2013-08-29 07:00:00,
2013-08-29 00:02:00,68.5,62.8,29.47,WSW,249,0.0,0.0,82,0.00,,---,0.00,VWS V13.01,2013-08-29 07:02:00,
2013-08-29 00:03:00,68.5,62.8,29.47,WSW,249,0.0,0.0,82,0.00,,---,0.00,VWS V13.01,2013-08-29 07:03:00,
2013-08-29 00:04:00,68.5,62.8,29.47,WSW,249,0.0,0.0,82,0.00,,---,0.00,VWS V13.01,2013-08-29 07:04:00,
2013-08-29 00:05:00,68.5,62.8,29.47,WSW,249,0.0,0.0,82,0.00,,---,0.00,VWS V13.01,2013-08-29 07:05:00,
2013-08-29 00:07:00,68.5,62.8,29.47,WSW,249,0.0,0.0,82,0.00,,---,0.00,VWS V13.01,2013-08-29 07:07:00,
2013-08-29 00:08:00,68.5,62.8,29.47,WSW,249,0.0,0.0,82,0.00,,---,0.00,VWS V13.01,2013-08-29 07:08:00,
2013-08-29 00:09:00,68.5,62.8,29.47,WSW,249,0.0,0.0,82,0.00,,---,0.00,VWS V13.01,2013-08-29 07:09:00,
2013-08-29 00:10:00,68.5,62.8,29.47,WSW,249,0.0,0.0,82,0.00,,---,0.00,VWS V13.01,2013-08-29 07:10:00,
2013-08-29 00:12:00,68.5,62.8,29.47,WSW,249,0.0,0.0,82,0.00,,---,0.00,VWS V13.01,2013-08-29 07:12:00,
2013-08-29 00:13:00,68.5,62.8,29.47,WSW,249,0.0,0.0,82,0.00,,---,0.00,VWS V13.01,2013-08-29 07:13:00,
2013-08-29 00:14:00,68.2,63.2,29.47,WSW,249,0.0,0.0,84,0.00,,---,0.00,VWS V13.01,2013-08-29 07:14:00,
2013-08-29 00:15:00,68.2,63.2,29.47,WSW,249,0.0,0.0,84,0.00,,---,0.00,VWS V13.01,2013-08-29 07:15:00,
2013-08-29 00:17:00,68.0,63.3,29.47,WSW,249,0.0,0.0,85,0.00,,---,0.00,VWS V13.01,2013-08-29 07:17:00,
2013-08-29 00:18:00,68.0,63.3,29.47,WSW,249,0.0,0.0,85,0.00,,---,0.00,VWS V13.01,2013-08-29 07:18:00,
2013-08-29 00:19:00,68.0,63.3,29.50,WSW,249,0.0,0.0,85,0.00,,---,0.00,VWS V13.01,2013-08-29 07:19:00,
2013-08-29 00:20:00,68.0,63.3,29.50,WSW,249,0.0,0.0,85,0.00,,---,0.00,VWS V13.01,2013-08-29 07:20:00,
2013-08-29 00:22:00,68.0,63.3,29.50,WSW,249,0.0,0.0,85,0.00,,---,0.00,VWS V13.01,2013-08-29 07:22:00,
2013-08-29 00:24:00,67.6,63.3,29.50,WSW,249,0.0,0.0,86,0.00,,---,0.00,VWS V13.01,2013-08-29 07:24:00,
2013-08-29 00:25:00,67.6,63.3,29.50,WSW,249,0.0,0.0,86,0.00,,---,0.00,VWS V13.01,2013-08-29 07:25:00,
2013-08-29 00:26:00,67.6,63.3,29.50,WSW,249,0.0,0.0,86,0.00,,---,0.00,VWS V13.01,2013-08-29 07:26:00,
2013-08-29 00:28:00,67.6,63.3,29.50,WSW,249,0.0,0.0,86,0.00,,---,0.00,VWS V13.01,2013-08-29 07:28:00,
2013-08-29 00:29:00,67.6,63.3,29.50,WSW,249,0.0,0.0,86,0.00,,---,0.00,VWS V13.01,2013-08-29 07:29:00,
2013-08-29 00:30:00,67.6,63.3,29.50,WSW,249,0.0,0.0,86,0.00,,---,0.00,VWS V13.01,2013-08-29 07:30:00,
2013-08-29 00:31:00,67.6,63.3,29.50,WSW,249,0.0,0.0,86,0.00,,---,0.00,VWS V13.01,2013-08-29 07:31:00,
2013-08-29 00:33:00,67.8,63.5,29.47,WSW,249,0.0,0.0,86,0.00,,---,0.00,VWS V13.01,2013-08-29 07:33:00,
2013-08-29 00:34:00,67.8,63.5,29.47,WSW,249,0.0,0.0,86,0.00,,---,0.00,VWS V13.01,2013-08-29 07:34:00,
2013-08-29 00:35:00,67.8,63.5,29.47,WSW,249,0.0,0.0,86,0.00,,---,0.00,VWS V13.01,2013-08-29 07:35:00,
2013-08-29 00:36:00,67.8,63.5,29.47,WSW,249,0.0,0.0,86,0.00,,---,0.00,VWS V13.01,2013-08-29 07:36:00,
2013-08-29 00:38:00,67.8,63.5,29.47,WSW,249,0.0,0.0,86,0.00,,---,0.00,VWS V13.01,2013-08-29 07:38:00,
2013-08-29 00:39:00,67.8,63.5,29.47,WSW,249,0.0,0.0,86,0.00,,---,0.00,VWS V13.01,2013-08-29 07:39:00,
2013-08-29 00:40:00,67.8,63.5,29.47,WSW,249,0.0,0.0,86,0.00,,---,0.00,VWS V13.01,2013-08-29 07:40:00,
2013-08-29 00:41:00,67.8,63.5,29.47,WSW,249,0.0,0.0,86,0.00,,---,0.00,VWS V13.01,2013-08-29 07:41:00,
2013-08-29 00:43:00,68.0,63.7,29.47,WSW,249,0.0,0.0,86,0.00,,---,0.00,VWS V13.01,2013-08-29 07:43:00,
2013-08-29 00:44:00,68.0,63.7,29.47,WSW,249,0.0,0.0,86,0.00,,---,0.00,VWS V13.01,2013-08-29 07:44:00,
2013-08-29 00:45:00,68.0,63.7,29.47,WSW,249,0.0,0.0,86,0.00,,---,0.00,VWS V13.01,2013-08-29 07:45:00,
2013-08-29 00:46:00,68.0,63.7,29.47,WSW,249,0.0,0.0,86,0.00,,---,0.00,VWS V13.01,2013-08-29 07:46:00,
2013-08-29 00:48:00,67.8,63.8,29.47,WSW,249,0.0,0.0,87,0.00,,---,0.00,VWS V13.01,2013-08-29 07:48:00,
2013-08-29 00:49:00,67.8,63.8,29.47,WSW,249,0.0,0.0,87,0.00,,---,0.00,VWS V13.01,2013-08-29 07:49:00,
2013-08-29 00:50:00,67.8,63.8,29.47,WSW,249,0.0,0.0,87,0.00,,---,0.00,VWS V13.01,2013-08-29 07:50:00,
2013-08-29 00:51:00,67.6,63.6,29.47,WSW,249,0.0,0.0,87,0.00,,---,0.00,VWS V13.01,2013-08-29 07:51:00,
2013-08-29 00:53:00,67.6,63.6,29.47,WSW,249,0.0,0.0,87,0.00,,---,0.00,VWS V13.01,2013-08-29 07:53:00,
2013-08-29 00:54:00,67.6,63.6,29.47,WSW,249,0.0,0.0,87,0.00,,---,0.00,VWS V13.01,2013-08-29 07:54:00,
2013-08-29 00:55:00,67.6,63.6,29.47,WSW,249,0.0,0.0,87,0.00,,---,0.00,VWS V13.01,2013-08-29 07:55:00,
2013-08-29 00:56:00,67.6,63.6,29.47,WSW,249,0.0,0.0,87,0.00,,---,0.00,VWS V13.01,2013-08-29 07:56:00,
2013-08-29 00:58:00,67.6,63.6,29.47,WSW,249,0.0,0.0,87,0.00,,---,0.00,VWS V13.01,2013-08-29 07:58:00,
2013-08-29 00:59:00,67.8,63.8,29.47,WSW,249,0.0,0.0,87,0.00,,---,0.00,VWS V13.01,2013-08-29 07:59:00,
2013-08-29 01:00:00,67.8,63.8,29.47,WSW,249,0.0,0.0,87,0.00,,---,0.00,VWS V13.01,2013-08-29 08:00:00,
2013-08-29 01:01:00,67.8,63.8,29.47,WSW,249,0.0,0.0,87,0.00,,---,0.00,VWS V13.01,2013-08-29 08:01:00,
2013-08-29 01:03:00,67.6,64.0,29.47,WSW,249,0.0,0.0,88,0.00,,---,0.00,VWS V13.01,2013-08-29 08:03:00,
2013-08-29 01:04:00,67.6,64.0,29.47,WSW,249,0.0,0.0,88,0.00,,---,0.00,VWS V13.01,2013-08-29 08:04:00,
2013-08-29 01:05:00,67.6,64.0,29.47,WSW,249,0.0,0.0,88,0.00,,---,0.00,VWS V13.01,2013-08-29 08:05:00,
2013-08-29 01:06:00,67.6,64.0,29.47,WSW,249,0.0,0.0,88,0.00,,---,0.00,VWS V13.01,2013-08-29 08:06:00,
2013-08-29 01:08:00,67.6,64.0,29.47,WSW,249,0.0,0.0,88,0.00,,---,0.00,VWS V13.01,2013-08-29 08:08:00,
2013-08-29 01:10:00,67.6,64.0,29.47,WSW,249,0.0,0.0,88,0.00,,---,0.00,VWS V13.01,2013-08-29 08:10:00,
2013-08-29 01:11:00,67.6,64.0,29.47,WSW,249,0.0,0.0,88,0.00,,---,0.00,VWS V13.01,2013-08-29 08:11:00,
2013-08-29 01:12:00,67.6,64.0,29.47,WSW,249,0.0,0.0,88,0.00,,---,0.00,VWS V13.01,2013-08-29 08:12:00,
2013-08-29 01:13:00,67.6,64.0,29.47,WSW,249,0.0,0.0,88,0.00,,---,0.00,VWS V13.01,2013-08-29 08:13:00,
2013-08-29 01:15:00,67.6,64.0,29.47,WSW,249,0.0,0.0,88,0.00,,---,0.00,VWS V13.01,2013-08-29 08:15:00,
2013-08-29 01:16:00,67.6,64.0,29.47,WSW,249,0.0,0.0,88,0.00,,---,0.00,VWS V13.01,2013-08-29 08:16:00,
2013-08-29 01:17:00,67.5,63.8,29.47,WSW,249,0.0,0.0,88,0.00,,---,0.00,VWS V13.01,2013-08-29 08:17:00,
2013-08-29 01:19:00,67.5,63.8,29.47,WSW,249,0.0,0.0,88,0.00,,---,0.00,VWS V13.01,2013-08-29 08:19:00,
2013-08-29 01:20:00,67.5,63.8,29.47,WSW,249,0.0,0.0,88,0.00,,---,0.00,VWS V13.01,2013-08-29 08:20:00,
2013-08-29 01:21:00,67.5,63.8,29.47,WSW,249,0.0,0.0,88,0.00,,---,0.00,VWS V13.01,2013-08-29 08:21:00,
2013-08-29 01:22:00,67.5,63.8,29.47,WSW,249,2.2,2.2,88,0.00,,---,0.00,VWS V13.01,2013-08-29 08:22:00,
2013-08-29 01:24:00,67.5,63.8,29.47,WSW,249,0.0,0.0,88,0.00,,---,0.00,VWS V13.01,2013-08-29 08:24:00,
2013-08-29 01:25:00,67.5,63.8,29.47,WSW,249,0.0,0.0,88,0.00,,---,0.00,VWS V13.01,2013-08-29 08:25:00,
2013-08-29 01:26:00,67.5,63.8,29.47,WSW,249,0.0,0.0,88,0.00,,---,0.00,VWS V13.01,2013-08-29 08:26:00,
2013-08-29 01:27:00,67.1,63.8,29.50,WSW,249,0.0,0.0,89,0.00,,---,0.00,VWS V13.01,2013-08-29 08:27:00,
2013-08-29 01:29:00,67.1,63.8,29.50,WSW,249,0.0,0.0,89,0.00,,---,0.00,VWS V13.01,2013-08-29 08:29:00,
2013-08-29 01:30:00,67.1,63.8,29.50,WSW,249,0.0,0.0,89,0.00,,---,0.00,VWS V13.01,2013-08-29 08:30:00,
2013-08-29 01:31:00,67.1,63.8,29.50,WSW,249,0.0,0.0,89,0.00,,---,0.00,VWS V13.01,2013-08-29 08:31:00,
2013-08-29 01:33:00,67.1,63.8,29.50,WSW,249,0.0,0.0,89,0.00,,---,0.00,VWS V13.01,2013-08-29 08:33:00,
2013-08-29 01:34:00,67.1,63.8,29.50,WSW,249,0.0,0.0,89,0.00,,---,0.00,VWS V13.01,2013-08-29 08:34:00,
2013-08-29 01:36:00,67.1,64.1,29.50,WSW,249,0.0,0.0,90,0.00,,---,0.00,VWS V13.01,2013-08-29 08:36:00,
2013-08-29 01:38:00,67.1,64.1,29.50,WSW,249,0.0,0.0,90,0.00,,---,0.00,VWS V13.01,2013-08-29 08:38:00,
2013-08-29 01:39:00,67.1,64.1,29.50,WSW,249,0.0,0.0,90,0.00,,---,0.00,VWS V13.01,2013-08-29 08:39:00,
2013-08-29 01:41:00,67.1,64.1,29.47,WSW,249,0.0,0.0,90,0.00,,---,0.00,VWS V13.01,2013-08-29 08:41:00,
2013-08-29 01:43:00,67.1,64.1,29.47,WSW,249,0.0,0.0,90,0.00,,---,0.00,VWS V13.01,2013-08-29 08:43:00,
2013-08-29 01:44:00,67.1,64.1,29.47,WSW,249,0.0,0.0,90,0.00,,---,0.00,VWS V13.01,2013-08-29 08:44:00,
2013-08-29 01:46:00,66.7,63.7,29.47,WSW,249,0.0,0.0,90,0.00,,---,0.00,VWS V13.01,2013-08-29 08:46:00,
2013-08-29 01:48:00,66.9,63.9,29.47,WSW,249,0.0,0.0,90,0.00,,---,0.00,VWS V13.01,2013-08-29 08:48:00,
2013-08-29 01:49:00,66.9,63.9,29.50,WSW,249,0.0,0.0,90,0.00,,---,0.00,VWS V13.01,2013-08-29 08:49:00,
2013-08-29 01:51:00,66.9,63.9,29.50,WSW,249,0.0,0.0,90,0.00,,---,0.00,VWS V13.01,2013-08-29 08:51:00,
2013-08-29 01:53:00,67.1,64.1,29.50,WSW,249,0.0,0.0,90,0.00,,---,0.00,VWS V13.01,2013-08-29 08:53:00,
2013-08-29 01:55:00,67.1,64.1,29.50,WSW,249,0.0,0.0,90,0.00,,---,0.00,VWS V13.01,2013-08-29 08:55:00,
2013-08-29 01:56:00,67.1,64.1,29.50,WSW,249,0.0,0.0,90,0.00,,---,0.00,VWS V13.01,2013-08-29 08:56:00,
2013-08-29 01:57:00,67.1,64.1,29.50,WSW,249,0.0,0.0,90,0.00,,---,0.00,VWS V13.01,2013-08-29 08:57:00,
2013-08-29 01:58:00,67.1,64.1,29.50,WSW,249,0.0,0.0,90,0.00,,---,0.00,VWS V13.01,2013-08-29 08:58:00,
2013-08-29 02:00:00,67.1,64.1,29.50,WSW,249,0.0,0.0,90,0.00,,---,0.00,VWS V13.01,2013-08-29 09:00:00,
2013-08-29 02:01:00,67.1,64.1,29.50,WSW,249,0.0,0.0,90,0.00,,---,0.00,VWS V13.01,2013-08-29 09:01:00,
2013-08-29 02:02:00,67.1,64.1,29.47,WSW,249,0.0,0.0,90,0.00,,---,0.00,VWS V13.01,2013-08-29 09:02:00,
2013-08-29 02:03:00,66.7,64.0,29.47,WSW,249,0.0,0.0,91,0.00,,---,0.00,VWS V13.01,2013-08-29 09:03:00,
2013-08-29 02:05:00,66.7,64.0,29.47,WSW,249,0.0,0.0,91,0.00,,---,0.00,VWS V13.01,2013-08-29 09:05:00,
2013-08-29 02:06:00,66.7,64.0,29.47,WSW,249,0.0,0.0,91,0.00,,---,0.00,VWS V13.01,2013-08-29 09:06:00,
2013-08-29 02:07:00,66.7,64.0,29.47,WSW,249,0.0,0.0,91,0.00,,---,0.00,VWS V13.01,2013-08-29 09:07:00,
2013-08-29 02:08:00,66.7,64.0,29.47,WSW,249,0.0,0.0,91,0.00,,---,0.00,VWS V13.01,2013-08-29 09:08:00,
2013-08-29 02:10:00,66.7,64.0,29.47,WSW,249,0.0,0.0,91,0.00,,---,0.00,VWS V13.01,2013-08-29 09:10:00,
2013-08-29 02:11:00,66.7,64.0,29.47,WSW,249,0.0,0.0,91,0.00,,---,0.00,VWS V13.01,2013-08-29 09:11:00,
2013-08-29 02:12:00,66.7,64.0,29.47,WSW,249,0.0,0.0,91,0.00,,---,0.00,VWS V13.01,2013-08-29 09:12:00,
2013-08-29 02:13:00,66.7,64.0,29.47,WSW,249,0.0,0.0,91,0.00,,---,0.00,VWS V13.01,2013-08-29 09:13:00,
2013-08-29 02:15:00,66.7,64.0,29.47,WSW,249,0.0,0.0,91,0.00,,---,0.00,VWS V13.01,2013-08-29 09:15:00,
2013-08-29 02:16:00,66.7,64.0,29.47,WSW,249,0.0,0.0,91,0.00,,---,0.00,VWS V13.01,2013-08-29 09:16:00,
2013-08-29 02:17:00,66.7,64.0,29.47,WSW,249,0.0,0.0,91,0.00,,---,0.00,VWS V13.01,2013-08-29 09:17:00,
2013-08-29 02:18:00,66.7,64.0,29.50,WSW,249,0.0,0.0,91,0.00,,---,0.00,VWS V13.01,2013-08-29 09:18:00,
2013-08-29 02:20:00,66.7,64.0,29.50,WSW,249,0.0,0.0,91,0.00,,---,0.00,VWS V13.01,2013-08-29 09:20:00,
2013-08-29 02:22:00,66.6,63.9,29.50,WSW,249,0.0,0.0,91,0.00,,---,0.00,VWS V13.01,2013-08-29 09:22:00,
2013-08-29 02:23:00,66.6,63.9,29.50,WSW,249,0.0,0.0,91,0.00,,---,0.00,VWS V13.01,2013-08-29 09:23:00,
2013-08-29 02:25:00,66.6,63.9,29.50,WSW,249,0.0,0.0,91,0.00,,---,0.00,VWS V13.01,2013-08-29 09:25:00,
2013-08-29 02:27:00,66.6,63.9,29.50,WSW,249,0.0,0.0,91,0.00,,---,0.00,VWS V13.01,2013-08-29 09:27:00,
2013-08-29 02:28:00,66.6,63.9,29.50,WSW,249,0.0,0.0,91,0.00,,---,0.00,VWS V13.01,2013-08-29 09:28:00,
2013-08-29 02:29:00,66.6,63.9,29.50,WSW,249,0.0,0.0,91,0.00,,---,0.00,VWS V13.01,2013-08-29 09:29:00,
2013-08-29 02:30:00,66.9,64.2,29.50,WSW,249,0.0,0.0,91,0.00,,---,0.00,VWS V13.01,2013-08-29 09:30:00,
2013-08-29 02:32:00,66.9,64.2,29.50,WSW,249,0.0,0.0,91,0.00,,---,0.00,VWS V13.01,2013-08-29 09:32:00,
2013-08-29 02:33:00,66.9,64.2,29.50,WSW,249,0.0,0.0,91,0.00,,---,0.00,VWS V13.01,2013-08-29 09:33:00,
2013-08-29 02:34:00,66.9,64.2,29.50,WSW,249,0.0,0.0,91,0.00,,---,0.00,VWS V13.01,2013-08-29 09:34:00,
2013-08-29 02:35:00,66.9,64.2,29.50,WSW,249,0.0,0.0,91,0.00,,---,0.00,VWS V13.01,2013-08-29 09:35:00,
2013-08-29 02:37:00,66.9,64.2,29.50,WSW,249,0.0,0.0,91,0.00,,---,0.00,VWS V13.01,2013-08-29 09:37:00,
2013-08-29 02:38:00,66.9,64.2,29.50,WSW,249,0.0,0.0,91,0.00,,---,0.00,VWS V13.01,2013-08-29 09:38:00,
2013-08-29 02:39:00,66.9,64.2,29.50,WSW,249,0.0,0.0,91,0.00,,---,0.00,VWS V13.01,2013-08-29 09:39:00,
2013-08-29 02:40:00,66.7,64.0,29.50,WSW,249,0.0,0.0,91,0.00,,---,0.00,VWS V13.01,2013-08-29 09:40:00,
2013-08-29 02:42:00,66.7,64.0,29.50,WSW,249,0.0,0.0,91,0.00,,---,0.00,VWS V13.01,2013-08-29 09:42:00,
2013-08-29 02:43:00,66.7,64.0,29.50,WSW,249,0.0,0.0,91,0.00,,---,0.00,VWS V13.01,2013-08-29 09:43:00,
2013-08-29 02:44:00,66.7,64.0,29.50,WSW,249,0.0,0.0,91,0.00,,---,0.00,VWS V13.01,2013-08-29 09:44:00,
2013-08-29 02:45:00,66.7,64.0,29.50,WSW,249,0.0,0.0,91,0.00,,---,0.00,VWS V13.01,2013-08-29 09:45:00,
2013-08-29 02:47:00,66.7,64.0,29.47,WSW,249,0.0,0.0,91,0.00,,---,0.00,VWS V13.01,2013-08-29 09:47:00,
2013-08-29 02:48:00,66.7,64.0,29.47,WSW,249,0.0,0.0,91,0.00,,---,0.00,VWS V13.01,2013-08-29 09:48:00,
2013-08-29 02:49:00,66.4,63.7,29.47,WSW,249,0.0,0.0,91,0.00,,---,0.00,VWS V13.01,2013-08-29 09:49:00,
2013-08-29 02:51:00,66.4,63.7,29.47,WSW,249,0.0,0.0,91,0.00,,---,0.00,VWS V13.01,2013-08-29 09:51:00,
2013-08-29 02:52:00,66.4,64.0,29.47,WSW,249,0.0,0.0,92,0.00,,---,0.00,VWS V13.01,2013-08-29 09:52:00,
2013-08-29 02:53:00,66.4,64.0,29.47,WSW,249,0.0,0.0,92,0.00,,---,0.00,VWS V13.01,2013-08-29 09:53:00,
2013-08-29 02:54:00,66.4,64.0,29.47,WSW,249,0.0,0.0,92,0.00,,---,0.00,VWS V13.01,2013-08-29 09:54:00,
2013-08-29 02:56:00,66.4,64.0,29.47,WSW,249,0.0,0.0,92,0.00,,---,0.00,VWS V13.01,2013-08-29 09:56:00,
2013-08-29 02:57:00,66.4,64.0,29.47,WSW,249,0.0,0.0,92,0.00,,---,0.00,VWS V13.01,2013-08-29 09:57:00,
2013-08-29 02:58:00,66.4,64.0,29.47,WSW,249,0.0,0.0,92,0.00,,---,0.00,VWS V13.01,2013-08-29 09:58:00,
2013-08-29 02:59:00,66.4,64.0,29.47,WSW,249,0.0,0.0,92,0.00,,---,0.00,VWS V13.01,2013-08-29 09:59:00,
2013-08-29 03:01:00,66.6,64.2,29.47,WSW,249,0.0,0.0,92,0.00,,---,0.00,VWS V13.01,2013-08-29 10:01:00,
2013-08-29 03:02:00,66.6,64.2,29.47,WSW,249,0.0,0.0,92,0.00,,---,0.00,VWS V13.01,2013-08-29 10:02:00,
2013-08-29 03:03:00,66.6,64.2,29.47,WSW,249,0.0,0.0,92,0.00,,---,0.00,VWS V13.01,2013-08-29 10:03:00,
2013-08-29 03:04:00,66.6,64.2,29.47,WSW,249,0.0,0.0,92,0.00,,---,0.00,VWS V13.01,2013-08-29 10:04:00,
2013-08-29 03:06:00,66.6,64.2,29.47,WSW,249,0.0,0.0,92,0.00,,---,0.00,VWS V13.01,2013-08-29 10:06:00,
2013-08-29 03:07:00,66.6,64.2,29.47,WSW,249,0.0,0.0,92,0.00,,---,0.00,VWS V13.01,2013-08-29 10:07:00,
2013-08-29 03:08:00,66.6,64.2,29.47,WSW,249,0.0,0.0,92,0.00,,---,0.00,VWS V13.01,2013-08-29 10:08:00,
2013-08-29 03:09:00,66.6,64.2,29.47,WSW,249,0.0,0.0,92,0.00,,---,0.00,VWS V13.01,2013-08-29 10:09:00,
2013-08-29 03:11:00,66.4,64.0,29.47,WSW,249,0.0,0.0,92,0.00,,---,0.00,VWS V13.01,2013-08-29 10:11:00,
2013-08-29 03:12:00,66.4,64.0,29.47,WSW,249,0.0,0.0,92,0.00,,---,0.00,VWS V13.01,2013-08-29 10:12:00,
2013-08-29 03:13:00,66.4,64.0,29.47,WSW,249,0.0,0.0,92,0.00,,---,0.00,VWS V13.01,2013-08-29 10:13:00,
2013-08-29 03:14:00,66.4,64.0,29.47,WSW,249,0.0,0.0,92,0.00,,---,0.00,VWS V13.01,2013-08-29 10:14:00,
2013-08-29 03:17:00,66.6,63.9,29.47,WSW,249,0.0,0.0,91,0.00,,---,0.00,VWS V13.01,2013-08-29 10:17:00,
2013-08-29 03:18:00,66.6,63.9,29.47,WSW,249,0.0,0.0,91,0.00,,---,0.00,VWS V13.01,2013-08-29 10:18:00,
2013-08-29 03:19:00,66.6,63.9,29.47,WSW,249,0.0,0.0,91,0.00,,---,0.00,VWS V13.01,2013-08-29 10:19:00,
2013-08-29 03:22:00,66.6,63.9,29.47,WSW,249,0.0,0.0,91,0.00,,---,0.00,VWS V13.01,2013-08-29 10:22:00,
2013-08-29 03:23:00,66.6,63.9,29.47,WSW,249,0.0,0.0,91,0.00,,---,0.00,VWS V13.01,2013-08-29 10:23:00,
2013-08-29 03:24:00,66.6,63.9,29.47,WSW,249,0.0,0.0,91,0.00,,---,0.00,VWS V13.01,2013-08-29 10:24:00,
2013-08-29 03:27:00,66.4,63.7,29.47,WSW,249,0.0,0.0,91,0.00,,---,0.00,VWS V13.01,2013-08-29 10:27:00,
2013-08-29 03:28:00,66.4,63.7,29.47,WSW,249,0.0,0.0,91,0.00,,---,0.00,VWS V13.01,2013-08-29 10:28:00,
2013-08-29 03:29:00,66.4,64.0,29.47,WSW,249,0.0,0.0,92,0.00,,---,0.00,VWS V13.01,2013-08-29 10:29:00,
2013-08-29 03:32:00,66.6,64.2,29.47,WSW,249,0.0,0.0,92,0.04,,---,0.04,VWS V13.01,2013-08-29 10:32:00,
2013-08-29 03:33:00,66.6,64.2,29.50,WSW,249,0.0,0.0,92,0.04,,---,0.04,VWS V13.01,2013-08-29 10:33:00,
2013-08-29 03:34:00,66.6,64.2,29.50,WSW,249,0.0,0.0,92,0.04,,---,0.04,VWS V13.01,2013-08-29 10:34:00,
2013-08-29 03:37:00,66.6,64.2,29.50,WSW,249,0.0,0.0,92,0.04,,---,0.04,VWS V13.01,2013-08-29 10:37:00,
2013-08-29 03:38:00,66.4,64.0,29.50,WSW,249,0.0,0.0,92,0.04,,---,0.04,VWS V13.01,2013-08-29 10:38:00,
2013-08-29 03:39:00,66.4,64.0,29.50,WSW,249,0.0,0.0,92,0.04,,---,0.04,VWS V13.01,2013-08-29 10:39:00,
2013-08-29 03:42:00,66.4,64.0,29.50,WSW,249,0.0,0.0,92,0.04,,---,0.04,VWS V13.01,2013-08-29 10:42:00,
2013-08-29 03:43:00,66.2,63.8,29.50,WSW,249,0.0,0.0,92,0.04,,---,0.04,VWS V13.01,2013-08-29 10:43:00,
2013-08-29 03:44:00,66.2,63.8,29.50,WSW,249,0.0,0.0,92,0.04,,---,0.04,VWS V13.01,2013-08-29 10:44:00,
2013-08-29 03:45:00,66.2,63.8,29.50,WSW,249,0.0,0.0,92,0.04,,---,0.04,VWS V13.01,2013-08-29 10:45:00,
2013-08-29 03:47:00,66.2,63.8,29.47,WSW,249,0.0,0.0,92,0.04,,---,0.04,VWS V13.01,2013-08-29 10:47:00,
2013-08-29 03:48:00,66.2,63.8,29.47,WSW,249,0.0,0.0,92,0.04,,---,0.04,VWS V13.01,2013-08-29 10:48:00,
2013-08-29 03:49:00,66.2,63.8,29.47,WSW,249,0.0,0.0,92,0.04,,---,0.04,VWS V13.01,2013-08-29 10:49:00,
2013-08-29 03:50:00,66.2,63.8,29.47,WSW,249,0.0,0.0,92,0.04,,---,0.04,VWS V13.01,2013-08-29 10:50:00,
2013-08-29 03:52:00,66.4,64.0,29.47,WSW,249,0.0,0.0,92,0.04,,---,0.04,VWS V13.01,2013-08-29 10:52:00,
2013-08-29 03:53:00,66.4,64.0,29.47,WSW,249,0.0,0.0,92,0.04,,---,0.04,VWS V13.01,2013-08-29 10:53:00,
2013-08-29 03:54:00,66.4,64.0,29.47,WSW,249,0.0,0.0,92,0.04,,---,0.04,VWS V13.01,2013-08-29 10:54:00,
2013-08-29 03:55:00,66.4,64.0,29.47,WSW,249,0.0,0.0,92,0.04,,---,0.04,VWS V13.01,2013-08-29 10:55:00,
2013-08-29 03:57:00,66.2,63.8,29.47,WSW,249,0.0,0.0,92,0.04,,---,0.04,VWS V13.01,2013-08-29 10:57:00,
2013-08-29 03:58:00,66.2,63.8,29.47,WSW,249,0.0,0.0,92,0.04,,---,0.04,VWS V13.01,2013-08-29 10:58:00,
2013-08-29 03:59:00,66.2,63.8,29.47,WSW,249,0.0,0.0,92,0.04,,---,0.04,VWS V13.01,2013-08-29 10:59:00,
2013-08-29 04:00:00,66.2,63.8,29.47,WSW,249,0.0,0.0,92,0.04,,---,0.04,VWS V13.01,2013-08-29 11:00:00,
2013-08-29 04:02:00,66.4,64.0,29.47,WSW,249,0.0,0.0,92,0.04,,---,0.04,VWS V13.01,2013-08-29 11:02:00,
2013-08-29 04:03:00,66.4,64.0,29.47,WSW,249,0.0,0.0,92,0.04,,---,0.04,VWS V13.01,2013-08-29 11:03:00,
2013-08-29 04:04:00,66.4,64.0,29.47,WSW,249,0.0,0.0,92,0.04,,---,0.04,VWS V13.01,2013-08-29 11:04:00,
2013-08-29 04:05:00,66.4,64.0,29.47,WSW,249,0.0,0.0,92,0.04,,---,0.04,VWS V13.01,2013-08-29 11:05:00,
2013-08-29 04:07:00,66.4,64.0,29.47,WSW,249,0.0,0.0,92,0.04,,---,0.04,VWS V13.01,2013-08-29 11:07:00,
2013-08-29 04:09:00,66.4,64.0,29.47,WSW,249,0.0,0.0,92,0.04,,---,0.04,VWS V13.01,2013-08-29 11:09:00,
2013-08-29 04:10:00,66.4,64.0,29.47,WSW,249,0.0,0.0,92,0.04,,---,0.04,VWS V13.01,2013-08-29 11:10:00,
2013-08-29 04:13:00,66.4,64.0,29.47,WSW,249,0.0,0.0,92,0.04,,---,0.04,VWS V13.01,2013-08-29 11:13:00,
2013-08-29 04:14:00,66.4,63.7,29.47,WSW,249,0.0,0.0,91,0.04,,---,0.04,VWS V13.01,2013-08-29 11:14:00,
2013-08-29 04:15:00,66.4,63.7,29.47,WSW,249,0.0,0.0,91,0.04,,---,0.04,VWS V13.01,2013-08-29 11:15:00,
2013-08-29 04:18:00,66.4,63.7,29.47,WSW,249,0.0,0.0,91,0.04,,---,0.04,VWS V13.01,2013-08-29 11:18:00,
2013-08-29 04:19:00,66.4,63.7,29.47,WSW,249,0.0,0.0,91,0.04,,---,0.04,VWS V13.01,2013-08-29 11:19:00,
2013-08-29 04:20:00,66.2,63.8,29.47,WSW,249,0.0,0.0,92,0.04,,---,0.04,VWS V13.01,2013-08-29 11:20:00,
2013-08-29 04:23:00,66.0,63.6,29.47,WSW,249,0.0,0.0,92,0.04,,---,0.04,VWS V13.01,2013-08-29 11:23:00,
2013-08-29 04:24:00,66.0,63.6,29.47,WSW,249,0.0,0.0,92,0.04,,---,0.04,VWS V13.01,2013-08-29 11:24:00,
2013-08-29 04:25:00,66.0,63.6,29.47,WSW,249,0.0,0.0,92,0.08,,---,0.08,VWS V13.01,2013-08-29 11:25:00,
2013-08-29 04:29:00,66.0,63.9,29.47,WSW,249,0.0,0.0,93,0.08,,---,0.08,VWS V13.01,2013-08-29 11:29:00,
2013-08-29 04:30:00,66.0,63.9,29.47,WSW,249,0.0,0.0,93,0.08,,---,0.08,VWS V13.01,2013-08-29 11:30:00,
2013-08-29 04:31:00,66.0,63.9,29.47,WSW,249,0.0,0.0,93,0.08,,---,0.08,VWS V13.01,2013-08-29 11:31:00,
2013-08-29 04:34:00,65.8,63.8,29.47,WSW,249,0.0,0.0,93,0.04,,---,0.08,VWS V13.01,2013-08-29 11:34:00,
2013-08-29 04:35:00,65.8,63.8,29.47,WSW,249,0.0,0.0,93,0.04,,---,0.08,VWS V13.01,2013-08-29 11:35:00,
2013-08-29 04:36:00,65.8,63.8,29.47,WSW,249,0.0,0.0,93,0.04,,---,0.08,VWS V13.01,2013-08-29 11:36:00,
2013-08-29 04:39:00,66.0,63.9,29.47,WSW,249,0.0,0.0,93,0.04,,---,0.08,VWS V13.01,2013-08-29 11:39:00,
2013-08-29 04:40:00,66.0,63.9,29.47,WSW,249,0.0,0.0,93,0.04,,---,0.08,VWS V13.01,2013-08-29 11:40:00,
2013-08-29 04:41:00,66.0,63.9,29.47,WSW,249,0.0,0.0,93,0.04,,---,0.08,VWS V13.01,2013-08-29 11:41:00,
2013-08-29 04:44:00,66.0,63.9,29.47,WSW,249,0.0,0.0,93,0.04,,---,0.08,VWS V13.01,2013-08-29 11:44:00,
2013-08-29 04:45:00,66.0,63.9,29.47,WSW,249,0.0,0.0,93,0.04,,---,0.08,VWS V13.01,2013-08-29 11:45:00,
2013-08-29 04:46:00,66.0,63.9,29.47,WSW,249,0.0,0.0,93,0.04,,---,0.08,VWS V13.01,2013-08-29 11:46:00,
2013-08-29 04:49:00,66.0,63.9,29.47,WSW,249,0.0,0.0,93,0.04,,---,0.08,VWS V13.01,2013-08-29 11:49:00,
2013-08-29 04:50:00,66.0,63.9,29.47,WSW,249,0.0,0.0,93,0.04,,---,0.08,VWS V13.01,2013-08-29 11:50:00,
2013-08-29 04:51:00,66.0,63.9,29.47,WSW,249,0.0,0.0,93,0.08,,---,0.12,VWS V13.01,2013-08-29 11:51:00,
2013-08-29 04:54:00,66.0,63.9,29.47,WSW,249,0.0,0.0,93,0.08,,---,0.12,VWS V13.01,2013-08-29 11:54:00,
2013-08-29 04:55:00,66.0,63.9,29.47,WSW,249,0.0,0.0,93,0.08,,---,0.12,VWS V13.01,2013-08-29 11:55:00,
2013-08-29 04:56:00,65.8,63.8,29.47,WSW,249,0.0,0.0,93,0.08,,---,0.12,VWS V13.01,2013-08-29 11:56:00,
2013-08-29 05:00:00,66.0,63.9,29.47,SSE,149,0.0,0.0,93,0.08,,---,0.12,VWS V13.01,2013-08-29 12:00:00,
2013-08-29 05:01:00,66.0,63.9,29.47,SSE,147,0.0,0.0,93,0.08,,---,0.12,VWS V13.01,2013-08-29 12:01:00,
2013-08-29 05:05:00,66.0,63.9,29.47,SSE,159,0.0,0.0,93,0.08,,---,0.12,VWS V13.01,2013-08-29 12:05:00,
2013-08-29 05:06:00,65.8,63.8,29.47,SSE,159,0.0,0.0,93,0.08,,---,0.12,VWS V13.01,2013-08-29 12:06:00,
2013-08-29 05:10:00,66.0,63.9,29.47,NNE,33,3.6,3.6,93,0.16,,---,0.20,VWS V13.01,2013-08-29 12:10:00,
2013-08-29 05:11:00,65.8,63.8,29.47,East,96,0.0,0.0,93,0.16,,---,0.20,VWS V13.01,2013-08-29 12:11:00,
2013-08-29 05:12:00,65.8,63.8,29.47,East,96,0.0,0.0,93,0.16,,---,0.20,VWS V13.01,2013-08-29 12:12:00,
2013-08-29 05:15:00,66.0,63.9,29.47,East,96,0.0,0.0,93,0.16,,---,0.20,VWS V13.01,2013-08-29 12:15:00,
2013-08-29 05:16:00,66.0,63.9,29.47,East,96,0.0,0.0,93,0.16,,---,0.20,VWS V13.01,2013-08-29 12:16:00,
2013-08-29 05:17:00,66.0,63.9,29.47,East,96,0.0,0.0,93,0.16,,---,0.20,VWS V13.01,2013-08-29 12:17:00,
2013-08-29 05:20:00,65.8,63.8,29.47,SW,214,0.0,0.0,93,0.20,,---,0.24,VWS V13.01,2013-08-29 12:20:00,
2013-08-29 05:21:00,65.8,63.8,29.47,SW,214,0.0,0.0,93,0.20,,---,0.24,VWS V13.01,2013-08-29 12:21:00,
2013-08-29 05:22:00,65.8,63.8,29.47,SW,214,0.0,0.0,93,0.20,,---,0.24,VWS V13.01,2013-08-29 12:22:00,
2013-08-29 05:25:00,65.8,63.8,29.47,SE,144,2.7,2.7,93,0.20,,---,0.24,VWS V13.01,2013-08-29 12:25:00,
2013-08-29 05:26:00,65.8,63.8,29.47,SE,144,2.7,2.7,93,0.16,,---,0.24,VWS V13.01,2013-08-29 12:26:00,
2013-08-29 05:27:00,65.8,63.8,29.47,SE,144,2.7,2.7,93,0.16,,---,0.24,VWS V13.01,2013-08-29 12:27:00,
2013-08-29 05:30:00,65.8,63.8,29.47,NE,47,0.0,0.0,93,0.16,,---,0.24,VWS V13.01,2013-08-29 12:30:00,
2013-08-29 05:31:00,65.8,63.8,29.47,NE,47,0.0,0.0,93,0.16,,---,0.24,VWS V13.01,2013-08-29 12:31:00,
2013-08-29 05:32:00,65.8,63.8,29.47,NE,47,0.0,0.0,93,0.16,,---,0.24,VWS V13.01,2013-08-29 12:32:00,
2013-08-29 05:35:00,65.8,63.8,29.47,SSE,157,3.1,3.1,93,0.20,,---,0.28,VWS V13.01,2013-08-29 12:35:00,
2013-08-29 05:36:00,65.8,63.8,29.47,West,263,0.0,0.0,93,0.20,,---,0.28,VWS V13.01,2013-08-29 12:36:00,
2013-08-29 05:37:00,65.8,63.8,29.47,West,263,0.0,0.0,93,0.20,,---,0.28,VWS V13.01,2013-08-29 12:37:00,
2013-08-29 05:40:00,65.8,63.8,29.47,SE,141,0.0,0.0,93,0.20,,---,0.28,VWS V13.01,2013-08-29 12:40:00,
2013-08-29 05:41:00,65.8,63.8,29.47,SE,141,0.0,0.0,93,0.20,,---,0.28,VWS V13.01,2013-08-29 12:41:00,
2013-08-29 05:42:00,65.5,63.4,29.47,SE,141,0.0,0.0,93,0.20,,---,0.28,VWS V13.01,2013-08-29 12:42:00,
2013-08-29 05:45:00,65.7,63.6,29.47,SE,141,0.0,0.0,93,0.24,,---,0.31,VWS V13.01,2013-08-29 12:45:00,
2013-08-29 05:46:00,65.7,63.6,29.47,SE,141,0.0,0.0,93,0.24,,---,0.31,VWS V13.01,2013-08-29 12:46:00,
2013-08-29 05:47:00,65.7,63.6,29.47,East,88,0.0,0.0,93,0.24,,---,0.31,VWS V13.01,2013-08-29 12:47:00,
2013-08-29 05:50:00,65.7,63.6,29.47,East,88,0.0,0.0,93,0.24,,---,0.31,VWS V13.01,2013-08-29 12:50:00,
2013-08-29 05:51:00,65.7,63.6,29.47,ESE,104,0.0,0.0,93,0.24,,---,0.31,VWS V13.01,2013-08-29 12:51:00,
2013-08-29 05:52:00,65.5,63.4,29.47,ESE,104,0.0,0.0,93,0.20,,---,0.31,VWS V13.01,2013-08-29 12:52:00,
2013-08-29 05:56:00,65.5,63.4,29.47,ESE,112,0.0,0.0,93,0.20,,---,0.31,VWS V13.01,2013-08-29 12:56:00,
2013-08-29 05:57:00,65.5,63.4,29.47,ENE,65,0.0,0.0,93,0.20,,---,0.31,VWS V13.01,2013-08-29 12:57:00,
2013-08-29 05:58:00,65.5,63.4,29.47,ENE,65,0.0,0.0,93,0.20,,---,0.31,VWS V13.01,2013-08-29 12:58:00,
2013-08-29 06:01:00,65.3,63.2,29.47,ENE,65,0.0,0.0,93,0.20,,---,0.31,VWS V13.01,2013-08-29 13:01:00,
2013-08-29 06:02:00,65.3,63.2,29.47,ENE,65,0.0,0.0,93,0.20,,---,0.31,VWS V13.01,2013-08-29 13:02:00,
2013-08-29 06:03:00,65.3,63.2,29.47,ENE,65,0.0,0.0,93,0.20,,---,0.35,VWS V13.01,2013-08-29 13:03:00,
2013-08-29 06:06:00,65.3,63.2,29.47,East,79,0.0,0.0,93,0.24,,---,0.35,VWS V13.01,2013-08-29 13:06:00,
2013-08-29 06:07:00,65.3,63.2,29.47,East,79,0.0,0.0,93,0.24,,---,0.35,VWS V13.01,2013-08-29 13:07:00,
2013-08-29 06:08:00,65.3,63.2,29.47,East,79,0.0,0.0,93,0.16,,---,0.35,VWS V13.01,2013-08-29 13:08:00,
2013-08-29 06:11:00,65.1,63.3,29.47,ENE,58,0.0,0.0,94,0.16,,---,0.35,VWS V13.01,2013-08-29 13:11:00,
2013-08-29 06:12:00,65.3,63.5,29.47,ENE,58,0.0,0.0,94,0.16,,---,0.35,VWS V13.01,2013-08-29 13:12:00,
2013-08-29 06:13:00,65.3,63.5,29.47,North,357,0.0,0.0,94,0.16,,---,0.35,VWS V13.01,2013-08-29 13:13:00,
2013-08-29 06:16:00,65.3,63.5,29.47,North,357,0.0,0.0,94,0.20,,---,0.39,VWS V13.01,2013-08-29 13:16:00,
2013-08-29 06:17:00,65.1,63.3,29.47,North,0,0.0,0.0,94,0.20,,---,0.39,VWS V13.01,2013-08-29 13:17:00,
2013-08-29 06:18:00,65.1,63.3,29.47,North,0,0.0,0.0,94,0.20,,---,0.39,VWS V13.01,2013-08-29 13:18:00,
2013-08-29 06:21:00,65.1,63.3,29.47,North,0,0.0,0.0,94,0.16,,---,0.39,VWS V13.01,2013-08-29 13:21:00,
2013-08-29 06:23:00,64.9,63.2,29.47,North,0,0.0,0.0,94,0.16,,---,0.39,VWS V13.01,2013-08-29 13:23:00,
2013-08-29 06:26:00,64.9,63.2,29.47,East,87,0.0,0.0,94,0.16,,---,0.39,VWS V13.01,2013-08-29 13:26:00,
2013-08-29 06:27:00,65.1,63.3,29.47,East,87,0.0,0.0,94,0.16,,---,0.39,VWS V13.01,2013-08-29 13:27:00,
2013-08-29 06:28:00,65.1,63.3,29.47,East,79,0.0,0.0,94,0.16,,---,0.39,VWS V13.01,2013-08-29 13:28:00,
2013-08-29 06:31:00,64.9,63.2,29.47,ENE,77,0.0,0.0,94,0.16,,---,0.39,VWS V13.01,2013-08-29 13:31:00,
2013-08-29 06:32:00,64.9,63.2,29.47,ENE,77,0.0,0.0,94,0.16,,---,0.39,VWS V13.01,2013-08-29 13:32:00,
2013-08-29 06:33:00,64.9,63.2,29.47,NNE,28,0.0,0.0,94,0.20,,---,0.43,VWS V13.01,2013-08-29 13:33:00,
2013-08-29 06:36:00,65.1,63.3,29.47,NNE,28,0.0,0.0,94,0.16,,---,0.43,VWS V13.01,2013-08-29 13:36:00,
2013-08-29 06:37:00,65.1,63.3,29.47,NNE,28,0.0,0.0,94,0.16,,---,0.43,VWS V13.01,2013-08-29 13:37:00,
2013-08-29 06:38:00,65.1,63.3,29.47,NNE,28,0.0,0.0,94,0.16,,---,0.43,VWS V13.01,2013-08-29 13:38:00,
2013-08-29 06:39:00,65.1,63.3,29.47,ESE,112,0.0,0.0,94,0.16,,---,0.43,VWS V13.01,2013-08-29 13:39:00,
2013-08-29 06:41:00,64.9,63.2,29.47,ESE,112,0.0,0.0,94,0.16,,---,0.43,VWS V13.01,2013-08-29 13:41:00,
2013-08-29 06:42:00,64.9,63.2,29.47,ESE,112,0.0,0.0,94,0.16,,---,0.43,VWS V13.01,2013-08-29 13:42:00,
2013-08-29 06:43:00,64.9,63.2,29.47,ESE,112,0.0,0.0,94,0.16,,---,0.43,VWS V13.01,2013-08-29 13:43:00,
2013-08-29 06:44:00,64.9,63.2,29.47,ENE,60,0.0,0.0,94,0.16,,---,0.43,VWS V13.01,2013-08-29 13:44:00,
2013-08-29 06:47:00,64.9,63.2,29.47,ENE,60,0.0,0.0,94,0.12,,---,0.43,VWS V13.01,2013-08-29 13:47:00,
2013-08-29 06:48:00,64.8,63.0,29.47,ENE,60,0.0,0.0,94,0.12,,---,0.43,VWS V13.01,2013-08-29 13:48:00,
2013-08-29 06:50:00,64.8,63.0,29.47,ENE,60,0.0,0.0,94,0.12,,---,0.43,VWS V13.01,2013-08-29 13:50:00,
2013-08-29 06:52:00,64.8,63.0,29.47,NE,41,4.0,4.0,94,0.12,,---,0.43,VWS V13.01,2013-08-29 13:52:00,
2013-08-29 06:53:00,64.9,63.2,29.47,ESE,107,0.0,0.0,94,0.12,,---,0.43,VWS V13.01,2013-08-29 13:53:00,
2013-08-29 06:54:00,64.9,63.2,29.47,ESE,107,0.0,0.0,94,0.12,,---,0.43,VWS V13.01,2013-08-29 13:54:00,
2013-08-29 06:55:00,64.9,63.2,29.47,ESE,107,0.0,0.0,94,0.12,,---,0.43,VWS V13.01,2013-08-29 13:55:00,
2013-08-29 06:57:00,64.9,63.2,29.47,ESE,107,0.0,0.0,94,0.12,,---,0.43,VWS V13.01,2013-08-29 13:57:00,
2013-08-29 06:59:00,64.8,63.0,29.47,ENE,61,0.0,0.0,94,0.12,,---,0.43,VWS V13.01,2013-08-29 13:59:00,
2013-08-29 07:00:00,64.8,63.0,29.47,ESE,105,0.0,0.0,94,0.12,,---,0.43,VWS V13.01,2013-08-29 14:00:00,
2013-08-29 07:02:00,64.8,63.0,29.47,SE,130,0.0,0.0,94,0.12,,---,0.43,VWS V13.01,2013-08-29 14:02:00,
2013-08-29 07:03:00,64.8,63.0,29.47,SE,130,0.0,0.0,94,0.16,,---,0.47,VWS V13.01,2013-08-29 14:03:00,
2013-08-29 07:04:00,64.8,63.0,29.47,SE,130,0.0,0.0,94,0.12,,---,0.47,VWS V13.01,2013-08-29 14:04:00,
2013-08-29 07:05:00,64.8,63.0,29.47,SE,130,0.0,0.0,94,0.12,,---,0.47,VWS V13.01,2013-08-29 14:05:00,
2013-08-29 07:08:00,64.8,63.0,29.47,ENE,72,0.0,0.0,94,0.12,,---,0.47,VWS V13.01,2013-08-29 14:08:00,
2013-08-29 07:09:00,64.8,63.0,29.44,South,190,0.0,0.0,94,0.12,,---,0.47,VWS V13.01,2013-08-29 14:09:00,
2013-08-29 07:10:00,64.8,63.0,29.44,South,190,0.0,0.0,94,0.12,,---,0.47,VWS V13.01,2013-08-29 14:10:00,
2013-08-29 07:13:00,64.6,62.8,29.44,ENE,64,0.0,0.0,94,0.12,,---,0.47,VWS V13.01,2013-08-29 14:13:00,
2013-08-29 07:14:00,64.4,62.6,29.44,East,95,0.0,0.0,94,0.12,,---,0.47,VWS V13.01,2013-08-29 14:14:00,
2013-08-29 07:15:00,64.4,62.6,29.44,East,95,0.0,0.0,94,0.12,,---,0.47,VWS V13.01,2013-08-29 14:15:00,
2013-08-29 07:18:00,64.6,62.8,29.44,NE,39,0.0,0.0,94,0.08,,---,0.47,VWS V13.01,2013-08-29 14:18:00,
2013-08-29 07:19:00,64.6,62.8,29.44,NE,39,0.0,0.0,94,0.08,,---,0.47,VWS V13.01,2013-08-29 14:19:00,
2013-08-29 07:20:00,64.6,62.8,29.44,NE,39,0.0,0.0,94,0.08,,---,0.47,VWS V13.01,2013-08-29 14:20:00,
2013-08-29 07:23:00,64.6,62.8,29.44,NE,39,0.0,0.0,94,0.08,,---,0.47,VWS V13.01,2013-08-29 14:23:00,
2013-08-29 07:24:00,64.8,63.0,29.44,ENE,67,0.0,0.0,94,0.08,,---,0.47,VWS V13.01,2013-08-29 14:24:00,
2013-08-29 07:25:00,64.8,63.0,29.44,ENE,67,0.0,0.0,94,0.08,,---,0.47,VWS V13.01,2013-08-29 14:25:00,
2013-08-29 07:28:00,64.8,63.0,29.44,SE,128,0.0,0.0,94,0.08,,---,0.47,VWS V13.01,2013-08-29 14:28:00,
2013-08-29 07:30:00,64.8,63.0,29.44,SE,128,0.0,0.0,94,0.08,,---,0.47,VWS V13.01,2013-08-29 14:30:00,
2013-08-29 07:31:00,64.8,62.7,29.44,SE,128,0.0,0.0,93,0.08,,---,0.47,VWS V13.01,2013-08-29 14:31:00,
2013-08-29 07:33:00,64.8,62.7,29.44,SE,137,0.0,0.0,93,0.08,,---,0.47,VWS V13.01,2013-08-29 14:33:00,
2013-08-29 07:34:00,64.8,62.7,29.44,SE,130,0.0,0.0,93,0.04,,---,0.47,VWS V13.01,2013-08-29 14:34:00,
2013-08-29 07:35:00,64.8,62.7,29.44,SE,130,0.0,0.0,93,0.04,,---,0.47,VWS V13.01,2013-08-29 14:35:00,
2013-08-29 07:36:00,64.8,62.7,29.47,SE,130,0.0,0.0,93,0.04,,---,0.47,VWS V13.01,2013-08-29 14:36:00,
2013-08-29 07:38:00,64.8,62.7,29.47,SSE,168,0.0,0.0,93,0.04,,---,0.47,VWS V13.01,2013-08-29 14:38:00,
2013-08-29 07:39:00,64.8,62.7,29.47,SSE,168,0.0,0.0,93,0.04,,---,0.47,VWS V13.01,2013-08-29 14:39:00,
2013-08-29 07:40:00,64.8,62.7,29.47,SSE,168,0.0,0.0,93,0.04,,---,0.47,VWS V13.01,2013-08-29 14:40:00,
2013-08-29 07:41:00,64.8,62.7,29.47,SSE,168,0.0,0.0,93,0.04,,---,0.47,VWS V13.01,2013-08-29 14:41:00,
2013-08-29 07:43:00,64.6,62.5,29.47,SSE,168,0.0,0.0,93,0.04,,---,0.47,VWS V13.01,2013-08-29 14:43:00,
2013-08-29 07:44:00,64.6,62.5,29.47,SSE,168,0.0,0.0,93,0.04,,---,0.47,VWS V13.01,2013-08-29 14:44:00,
2013-08-29 07:45:00,64.6,62.5,29.47,SSE,147,0.0,0.0,93,0.04,,---,0.47,VWS V13.01,2013-08-29 14:45:00,
2013-08-29 07:46:00,64.6,62.5,29.47,South,169,0.0,3.1,93,0.04,,---,0.47,VWS V13.01,2013-08-29 14:46:00,
2013-08-29 07:48:00,64.6,62.5,29.47,SE,128,0.0,0.0,93,0.04,,---,0.47,VWS V13.01,2013-08-29 14:48:00,
2013-08-29 07:49:00,64.6,62.5,29.47,SE,128,0.0,0.0,93,0.04,,---,0.47,VWS V13.01,2013-08-29 14:49:00,
2013-08-29 07:50:00,64.6,62.5,29.47,East,97,0.0,0.0,93,0.04,,---,0.47,VWS V13.01,2013-08-29 14:50:00,
2013-08-29 07:51:00,64.6,62.5,29.47,East,97,0.0,0.0,93,0.04,,---,0.47,VWS V13.01,2013-08-29 14:51:00,
2013-08-29 07:53:00,64.6,62.5,29.47,East,97,0.0,0.0,93,0.04,,---,0.47,VWS V13.01,2013-08-29 14:53:00,
2013-08-29 07:54:00,64.6,62.5,29.47,East,97,0.0,0.0,93,0.04,,---,0.47,VWS V13.01,2013-08-29 14:54:00,
2013-08-29 07:55:00,64.6,62.5,29.47,East,82,0.0,0.0,93,0.04,,---,0.47,VWS V13.01,2013-08-29 14:55:00,
2013-08-29 07:56:00,64.6,62.5,29.47,East,82,0.0,0.0,93,0.04,,---,0.47,VWS V13.01,2013-08-29 14:56:00,
2013-08-29 07:59:00,64.6,62.5,29.47,ESE,103,0.0,0.0,93,0.04,,---,0.47,VWS V13.01,2013-08-29 14:59:00,
2013-08-29 08:00:00,64.6,62.5,29.47,ESE,103,0.0,0.0,93,0.04,,---,0.47,VWS V13.01,2013-08-29 15:00:00,
2013-08-29 08:01:00,64.8,62.7,29.47,ESE,103,0.0,0.0,93,0.04,,---,0.47,VWS V13.01,2013-08-29 15:01:00,
2013-08-29 08:04:00,64.8,62.7,29.44,South,170,0.0,0.0,93,0.04,,---,0.51,VWS V13.01,2013-08-29 15:04:00,
2013-08-29 08:05:00,64.8,62.7,29.44,South,170,0.0,0.0,93,0.04,,---,0.51,VWS V13.01,2013-08-29 15:05:00,
2013-08-29 08:06:00,64.8,62.7,29.44,South,170,0.0,0.0,93,0.04,,---,0.51,VWS V13.01,2013-08-29 15:06:00,
2013-08-29 08:07:00,64.8,62.7,29.44,West,272,2.7,2.7,93,0.04,,---,0.51,VWS V13.01,2013-08-29 15:07:00,
2013-08-29 08:10:00,64.4,62.3,29.44,West,272,2.7,2.7,93,0.04,,---,0.51,VWS V13.01,2013-08-29 15:10:00,
2013-08-29 08:11:00,64.2,62.5,29.44,West,272,2.7,2.7,94,0.04,,---,0.51,VWS V13.01,2013-08-29 15:11:00,
2013-08-29 08:12:00,64.2,62.5,29.44,West,272,2.7,2.7,94,0.04,,---,0.51,VWS V13.01,2013-08-29 15:12:00,
2013-08-29 08:15:00,64.2,62.5,29.44,WSW,240,0.0,0.0,94,0.04,,---,0.51,VWS V13.01,2013-08-29 15:15:00,
2013-08-29 08:16:00,64.2,62.5,29.44,WSW,240,0.0,0.0,94,0.04,,---,0.51,VWS V13.01,2013-08-29 15:16:00,
2013-08-29 08:17:00,64.2,62.5,29.44,WSW,240,0.0,0.0,94,0.04,,---,0.51,VWS V13.01,2013-08-29 15:17:00,
2013-08-29 08:20:00,64.0,62.3,29.47,WSW,240,0.0,0.0,94,0.04,,---,0.51,VWS V13.01,2013-08-29 15:20:00,
2013-08-29 08:21:00,64.0,62.3,29.47,WSW,240,0.0,0.0,94,0.04,,---,0.51,VWS V13.01,2013-08-29 15:21:00,
2013-08-29 08:22:00,64.0,62.3,29.47,WSW,240,0.0,0.0,94,0.04,,---,0.51,VWS V13.01,2013-08-29 15:22:00,
2013-08-29 08:25:00,64.2,62.5,29.47,WSW,240,0.0,0.0,94,0.04,,---,0.51,VWS V13.01,2013-08-29 15:25:00,
2013-08-29 08:26:00,64.2,62.5,29.47,East,82,0.0,0.0,94,0.04,,---,0.51,VWS V13.01,2013-08-29 15:26:00,
2013-08-29 08:27:00,64.2,62.5,29.47,East,82,0.0,0.0,94,0.04,,---,0.51,VWS V13.01,2013-08-29 15:27:00,
2013-08-29 08:30:00,64.0,62.3,29.47,East,82,0.0,0.0,94,0.04,,---,0.51,VWS V13.01,2013-08-29 15:30:00,
2013-08-29 08:31:00,64.0,62.3,29.47,East,82,0.0,0.0,94,0.04,,---,0.51,VWS V13.01,2013-08-29 15:31:00,
2013-08-29 08:32:00,64.0,62.3,29.47,East,82,0.0,0.0,94,0.04,,---,0.51,VWS V13.01,2013-08-29 15:32:00,
2013-08-29 08:35:00,64.0,62.3,29.47,East,82,0.0,0.0,94,0.04,,---,0.51,VWS V13.01,2013-08-29 15:35:00,
2013-08-29 08:36:00,64.0,62.3,29.47,East,82,0.0,0.0,94,0.04,,---,0.51,VWS V13.01,2013-08-29 15:36:00,
2013-08-29 08:37:00,64.0,62.3,29.47,East,82,0.0,0.0,94,0.04,,---,0.51,VWS V13.01,2013-08-29 15:37:00,
2013-08-29 08:40:00,64.2,62.5,29.47,East,82,0.0,0.0,94,0.04,,---,0.51,VWS V13.01,2013-08-29 15:40:00,
2013-08-29 08:41:00,64.2,62.5,29.47,East,82,0.0,0.0,94,0.04,,---,0.51,VWS V13.01,2013-08-29 15:41:00,
2013-08-29 08:42:00,64.2,62.5,29.47,East,82,0.0,0.0,94,0.04,,---,0.51,VWS V13.01,2013-08-29 15:42:00,
2013-08-29 08:45:00,64.0,62.6,29.47,East,82,0.0,0.0,95,0.04,,---,0.51,VWS V13.01,2013-08-29 15:45:00,
2013-08-29 08:46:00,64.0,62.6,29.47,East,82,0.0,0.0,95,0.04,,---,0.51,VWS V13.01,2013-08-29 15:46:00,
2013-08-29 08:47:00,64.0,62.6,29.47,East,82,0.0,0.0,95,0.04,,---,0.51,VWS V13.01,2013-08-29 15:47:00,
2013-08-29 08:51:00,64.0,62.6,29.47,South,174,0.0,0.0,95,0.08,,---,0.55,VWS V13.01,2013-08-29 15:51:00,
2013-08-29 08:52:00,64.0,62.6,29.47,South,174,0.0,0.0,95,0.08,,---,0.55,VWS V13.01,2013-08-29 15:52:00,
2013-08-29 08:56:00,64.2,62.5,29.47,South,174,0.0,0.0,94,0.08,,---,0.55,VWS V13.01,2013-08-29 15:56:00,
2013-08-29 08:57:00,64.2,62.5,29.47,South,174,0.0,0.0,94,0.08,,---,0.55,VWS V13.01,2013-08-29 15:57:00,
2013-08-29 09:01:00,64.2,62.5,29.47,South,174,0.0,0.0,94,0.08,,---,0.55,VWS V13.01,2013-08-29 16:01:00,
2013-08-29 09:02:00,64.0,62.6,29.47,South,174,0.0,0.0,95,0.08,,---,0.55,VWS V13.01,2013-08-29 16:02:00,
2013-08-29 09:03:00,64.0,62.6,29.47,South,174,0.0,0.0,95,0.08,,---,0.55,VWS V13.01,2013-08-29 16:03:00,
2013-08-29 09:06:00,64.0,62.6,29.47,South,174,0.0,0.0,95,0.04,,---,0.55,VWS V13.01,2013-08-29 16:06:00,
2013-08-29 09:07:00,64.0,62.6,29.47,South,174,0.0,0.0,95,0.04,,---,0.55,VWS V13.01,2013-08-29 16:07:00,
2013-08-29 09:08:00,64.0,62.6,29.47,South,174,0.0,0.0,95,0.08,,---,0.59,VWS V13.01,2013-08-29 16:08:00,
2013-08-29 09:11:00,64.0,62.6,29.47,South,174,0.0,0.0,95,0.08,,---,0.59,VWS V13.01,2013-08-29 16:11:00,
2013-08-29 09:12:00,64.0,62.6,29.47,South,174,0.0,0.0,95,0.08,,---,0.59,VWS V13.01,2013-08-29 16:12:00,
2013-08-29 09:13:00,64.0,62.6,29.47,South,174,0.0,0.0,95,0.08,,---,0.59,VWS V13.01,2013-08-29 16:13:00,
2013-08-29 09:16:00,64.0,62.6,29.47,South,174,0.0,0.0,95,0.08,,---,0.59,VWS V13.01,2013-08-29 16:16:00,
2013-08-29 09:17:00,64.2,62.8,29.47,East,94,0.0,0.0,95,0.08,,---,0.59,VWS V13.01,2013-08-29 16:17:00,
2013-08-29 09:18:00,64.2,62.8,29.47,East,94,0.0,0.0,95,0.08,,---,0.59,VWS V13.01,2013-08-29 16:18:00,
2013-08-29 09:21:00,64.0,62.6,29.47,ENE,68,0.0,0.0,95,0.08,,---,0.59,VWS V13.01,2013-08-29 16:21:00,
2013-08-29 09:22:00,64.0,62.6,29.47,ENE,68,0.0,0.0,95,0.08,,---,0.59,VWS V13.01,2013-08-29 16:22:00,
2013-08-29 09:23:00,64.0,62.6,29.47,ENE,68,0.0,0.0,95,0.08,,---,0.59,VWS V13.01,2013-08-29 16:23:00,
2013-08-29 09:24:00,64.2,62.8,29.47,East,101,0.0,0.0,95,0.08,,---,0.59,VWS V13.01,2013-08-29 16:24:00,
2013-08-29 09:26:00,64.2,62.8,29.47,SSE,167,0.0,0.0,95,0.08,,---,0.59,VWS V13.01,2013-08-29 16:26:00,
2013-08-29 09:28:00,64.2,62.8,29.47,SSE,167,0.0,0.0,95,0.12,,---,0.63,VWS V13.01,2013-08-29 16:28:00,
2013-08-29 09:29:00,64.2,62.8,29.47,SSE,167,0.0,0.0,95,0.12,,---,0.63,VWS V13.01,2013-08-29 16:29:00,
2013-08-29 09:31:00,64.2,62.8,29.47,SSE,167,0.0,0.0,95,0.12,,---,0.63,VWS V13.01,2013-08-29 16:31:00,
2013-08-29 09:33:00,64.2,62.8,29.47,East,85,0.0,0.0,95,0.12,,---,0.63,VWS V13.01,2013-08-29 16:33:00,
2013-08-29 09:34:00,64.2,62.8,29.47,East,85,0.0,0.0,95,0.12,,---,0.63,VWS V13.01,2013-08-29 16:34:00,
2013-08-29 09:37:00,64.2,62.8,29.47,ESE,116,0.0,0.0,95,0.12,,---,0.63,VWS V13.01,2013-08-29 16:37:00,
2013-08-29 09:38:00,64.4,62.6,29.47,ESE,116,0.0,0.0,94,0.12,,---,0.63,VWS V13.01,2013-08-29 16:38:00,
2013-08-29 09:39:00,64.4,62.6,29.47,ESE,116,0.0,0.0,94,0.12,,---,0.63,VWS V13.01,2013-08-29 16:39:00,
2013-08-29 09:42:00,64.2,62.8,29.47,ESE,116,0.0,0.0,95,0.12,,---,0.63,VWS V13.01,2013-08-29 16:42:00,
2013-08-29 09:43:00,64.2,62.8,29.47,ESE,116,0.0,0.0,95,0.12,,---,0.63,VWS V13.01,2013-08-29 16:43:00,
2013-08-29 09:44:00,64.2,62.8,29.47,SE,128,0.0,0.0,95,0.12,,---,0.63,VWS V13.01,2013-08-29 16:44:00,
2013-08-29 09:47:00,64.2,62.8,29.47,ENE,72,0.0,0.0,95,0.12,,---,0.63,VWS V13.01,2013-08-29 16:47:00,
2013-08-29 09:48:00,64.2,62.8,29.47,ENE,72,0.0,0.0,95,0.12,,---,0.63,VWS V13.01,2013-08-29 16:48:00,
2013-08-29 09:49:00,64.2,62.8,29.47,ENE,72,0.0,0.0,95,0.08,,---,0.63,VWS V13.01,2013-08-29 16:49:00,
2013-08-29 09:52:00,64.2,62.5,29.47,NE,52,2.7,2.7,94,0.08,,---,0.63,VWS V13.01,2013-08-29 16:52:00,
2013-08-29 09:53:00,64.2,62.5,29.47,ENE,77,4.0,4.0,94,0.08,,---,0.63,VWS V13.01,2013-08-29 16:53:00,
2013-08-29 09:54:00,64.2,62.5,29.47,ENE,77,4.0,4.0,94,0.08,,---,0.63,VWS V13.01,2013-08-29 16:54:00,
2013-08-29 09:57:00,64.2,62.5,29.47,NNE,33,0.0,0.0,94,0.08,,---,0.63,VWS V13.01,2013-08-29 16:57:00,
2013-08-29 09:58:00,64.2,62.5,29.47,NNE,33,0.0,0.0,94,0.08,,---,0.63,VWS V13.01,2013-08-29 16:58:00,
2013-08-29 09:59:00,64.2,62.5,29.47,East,95,0.0,0.0,94,0.08,,---,0.63,VWS V13.01,2013-08-29 16:59:00,
2013-08-29 10:02:00,64.2,62.5,29.47,East,95,0.0,0.0,94,0.08,,---,0.63,VWS V13.01,2013-08-29 17:02:00,
2013-08-29 10:03:00,64.2,62.5,29.47,ENE,69,0.0,0.0,94,0.08,,---,0.63,VWS V13.01,2013-08-29 17:03:00,
2013-08-29 10:04:00,64.2,62.5,29.47,ENE,69,0.0,0.0,94,0.08,,---,0.63,VWS V13.01,2013-08-29 17:04:00,
2013-08-29 10:05:00,64.2,62.5,29.47,ENE,69,0.0,0.0,94,0.08,,---,0.63,VWS V13.01,2013-08-29 17:05:00,
2013-08-29 10:07:00,64.0,62.3,29.47,ENE,69,0.0,0.0,94,0.08,,---,0.63,VWS V13.01,2013-08-29 17:07:00,
2013-08-29 10:08:00,64.2,62.5,29.47,ENE,69,0.0,0.0,94,0.04,,---,0.63,VWS V13.01,2013-08-29 17:08:00,
2013-08-29 10:09:00,64.2,62.5,29.47,ENE,69,0.0,0.0,94,0.04,,---,0.63,VWS V13.01,2013-08-29 17:09:00,
2013-08-29 10:10:00,64.2,62.5,29.47,ENE,69,0.0,0.0,94,0.04,,---,0.63,VWS V13.01,2013-08-29 17:10:00,
2013-08-29 10:12:00,64.2,62.5,29.47,South,172,3.1,3.1,94,0.04,,---,0.63,VWS V13.01,2013-08-29 17:12:00,
2013-08-29 10:14:00,64.2,62.5,29.47,ENE,71,3.6,3.6,94,0.04,,---,0.63,VWS V13.01,2013-08-29 17:14:00,
2013-08-29 10:15:00,64.2,62.5,29.47,ENE,71,3.6,3.6,94,0.04,,---,0.63,VWS V13.01,2013-08-29 17:15:00,
2013-08-29 10:17:00,64.2,62.5,29.47,ESE,104,0.0,0.0,94,0.04,,---,0.63,VWS V13.01,2013-08-29 17:17:00,
2013-08-29 10:19:00,64.2,62.5,29.47,East,85,0.0,0.0,94,0.04,,---,0.63,VWS V13.01,2013-08-29 17:19:00,
2013-08-29 10:20:00,64.2,62.5,29.44,East,85,0.0,0.0,94,0.04,,---,0.63,VWS V13.01,2013-08-29 17:20:00,
2013-08-29 10:22:00,64.2,62.5,29.44,East,94,2.7,2.7,94,0.04,,---,0.63,VWS V13.01,2013-08-29 17:22:00,
2013-08-29 10:24:00,64.2,62.5,29.44,East,94,2.7,2.7,94,0.04,,---,0.63,VWS V13.01,2013-08-29 17:24:00,
2013-08-29 10:25:00,64.2,62.5,29.44,East,94,2.7,2.7,94,0.04,,---,0.63,VWS V13.01,2013-08-29 17:25:00,
2013-08-29 10:27:00,64.2,62.5,29.44,North,357,0.0,0.0,94,0.04,,---,0.63,VWS V13.01,2013-08-29 17:27:00,
2013-08-29 10:29:00,64.2,62.5,29.44,SE,124,0.0,0.0,94,0.00,,---,0.63,VWS V13.01,2013-08-29 17:29:00,
2013-08-29 10:30:00,64.2,62.5,29.44,NE,51,0.0,0.0,94,0.00,,---,0.63,VWS V13.01,2013-08-29 17:30:00,
2013-08-29 10:32:00,64.2,62.5,29.44,ENE,72,0.0,0.0,94,0.00,,---,0.63,VWS V13.01,2013-08-29 17:32:00,
2013-08-29 10:34:00,64.2,62.5,29.47,ENE,72,0.0,0.0,94,0.00,,---,0.63,VWS V13.01,2013-08-29 17:34:00,
2013-08-29 10:35:00,64.2,62.5,29.47,ENE,72,0.0,0.0,94,0.00,,---,0.63,VWS V13.01,2013-08-29 17:35:00,
2013-08-29 10:37:00,64.2,62.8,29.47,ENE,72,0.0,0.0,95,0.00,,---,0.63,VWS V13.01,2013-08-29 17:37:00,
2013-08-29 10:39:00,64.2,62.8,29.47,ENE,59,0.0,0.0,95,0.00,,---,0.63,VWS V13.01,2013-08-29 17:39:00,
2013-08-29 10:40:00,64.2,62.8,29.47,ENE,59,0.0,0.0,95,0.00,,---,0.63,VWS V13.01,2013-08-29 17:40:00,
2013-08-29 10:43:00,64.2,62.8,29.47,ENE,59,0.0,0.0,95,0.00,,---,0.63,VWS V13.01,2013-08-29 17:43:00,
2013-08-29 10:44:00,64.2,62.8,29.47,West,261,0.0,0.0,95,0.00,,---,0.63,VWS V13.01,2013-08-29 17:44:00,
2013-08-29 10:45:00,64.0,62.6,29.47,West,261,0.0,0.0,95,0.00,,---,0.63,VWS V13.01,2013-08-29 17:45:00,
2013-08-29 10:48:00,64.0,62.6,29.47,West,261,0.0,0.0,95,0.00,,---,0.63,VWS V13.01,2013-08-29 17:48:00,
2013-08-29 10:49:00,64.0,62.6,29.47,West,261,0.0,0.0,95,0.00,,---,0.63,VWS V13.01,2013-08-29 17:49:00,
2013-08-29 10:50:00,64.0,62.6,29.47,West,261,0.0,0.0,95,0.00,,---,0.63,VWS V13.01,2013-08-29 17:50:00,
2013-08-29 10:53:00,64.0,62.6,29.47,WNW,287,0.0,0.0,95,0.00,,---,0.63,VWS V13.01,2013-08-29 17:53:00,
2013-08-29 10:55:00,64.0,62.6,29.47,WNW,287,0.0,0.0,95,0.00,,---,0.63,VWS V13.01,2013-08-29 17:55:00,
2013-08-29 10:56:00,64.0,62.6,29.47,WNW,287,0.0,0.0,95,0.00,,---,0.63,VWS V13.01,2013-08-29 17:56:00,
2013-08-29 10:58:00,64.2,62.8,29.47,WNW,287,0.0,0.0,95,0.00,,---,0.63,VWS V13.01,2013-08-29 17:58:00,
2013-08-29 11:00:00,64.2,62.8,29.47,WNW,287,0.0,0.0,95,0.00,,---,0.63,VWS V13.01,2013-08-29 18:00:00,
2013-08-29 11:01:00,64.2,62.8,29.47,WNW,287,0.0,0.0,95,0.00,,---,0.63,VWS V13.01,2013-08-29 18:01:00,
2013-08-29 11:03:00,64.2,62.8,29.47,ENE,75,0.0,0.0,95,0.00,,---,0.63,VWS V13.01,2013-08-29 18:03:00,
2013-08-29 11:05:00,64.2,62.8,29.47,ENE,75,0.0,0.0,95,0.00,,---,0.63,VWS V13.01,2013-08-29 18:05:00,
2013-08-29 11:06:00,64.2,62.8,29.47,SSE,166,0.0,0.0,95,0.00,,---,0.63,VWS V13.01,2013-08-29 18:06:00,
2013-08-29 11:08:00,64.2,62.8,29.47,SSE,166,0.0,0.0,95,0.00,,---,0.63,VWS V13.01,2013-08-29 18:08:00,
2013-08-29 11:10:00,64.4,62.9,29.47,ENE,75,0.0,0.0,95,0.00,,---,0.63,VWS V13.01,2013-08-29 18:10:00,
2013-08-29 11:11:00,64.4,62.9,29.47,ENE,75,0.0,0.0,95,0.00,,---,0.63,VWS V13.01,2013-08-29 18:11:00,
2013-08-29 11:13:00,64.6,63.1,29.47,ENE,75,0.0,0.0,95,0.00,,---,0.63,VWS V13.01,2013-08-29 18:13:00,
2013-08-29 11:15:00,64.6,63.1,29.47,NNE,31,0.0,0.0,95,0.00,,---,0.63,VWS V13.01,2013-08-29 18:15:00,
2013-08-29 11:16:00,64.6,63.1,29.47,NNE,31,0.0,0.0,95,0.00,,---,0.63,VWS V13.01,2013-08-29 18:16:00,
2013-08-29 11:18:00,64.8,63.3,29.47,NNE,31,0.0,0.0,95,0.00,,---,0.63,VWS V13.01,2013-08-29 18:18:00,
2013-08-29 11:20:00,64.8,63.3,29.47,South,171,0.0,0.0,95,0.00,,---,0.63,VWS V13.01,2013-08-29 18:20:00,
2013-08-29 11:21:00,64.9,63.5,29.47,South,171,0.0,0.0,95,0.00,,---,0.63,VWS V13.01,2013-08-29 18:21:00,
2013-08-29 11:23:00,64.9,63.5,29.47,SW,224,0.0,0.0,95,0.00,,---,0.63,VWS V13.01,2013-08-29 18:23:00,
2013-08-29 11:25:00,64.9,63.5,29.47,SW,233,0.0,0.0,95,0.00,,---,0.63,VWS V13.01,2013-08-29 18:25:00,
2013-08-29 11:26:00,64.9,63.5,29.47,SW,233,0.0,0.0,95,0.00,,---,0.63,VWS V13.01,2013-08-29 18:26:00,
2013-08-29 11:28:00,64.9,63.5,29.47,SW,233,0.0,0.0,95,0.00,,---,0.63,VWS V13.01,2013-08-29 18:28:00,
2013-08-29 11:31:00,64.8,63.3,29.47,SW,233,0.0,0.0,95,0.00,,---,0.63,VWS V13.01,2013-08-29 18:31:00,
2013-08-29 11:34:00,64.8,63.3,29.47,SSW,195,3.1,3.1,95,0.04,,---,0.67,VWS V13.01,2013-08-29 18:34:00,
2013-08-29 11:36:00,64.8,63.3,29.50,SE,139,0.0,0.0,95,0.04,,---,0.67,VWS V13.01,2013-08-29 18:36:00,
2013-08-29 11:37:00,65.1,63.3,29.50,WNW,302,0.0,0.0,94,0.04,,---,0.67,VWS V13.01,2013-08-29 18:37:00,
2013-08-29 11:39:00,65.1,63.3,29.50,WNW,303,0.0,0.0,94,0.04,,---,0.67,VWS V13.01,2013-08-29 18:39:00,
2013-08-29 11:41:00,65.3,63.5,29.50,WNW,303,0.0,0.0,94,0.04,,---,0.67,VWS V13.01,2013-08-29 18:41:00,
2013-08-29 11:42:00,65.3,63.5,29.50,WNW,303,0.0,0.0,94,0.04,,---,0.67,VWS V13.01,2013-08-29 18:42:00,
2013-08-29 11:44:00,65.3,63.5,29.50,SW,225,0.0,0.0,94,0.04,,---,0.67,VWS V13.01,2013-08-29 18:44:00,
2013-08-29 11:46:00,65.5,64.0,29.50,SSW,197,0.0,0.0,95,0.04,,---,0.67,VWS V13.01,2013-08-29 18:46:00,
2013-08-29 11:47:00,65.5,64.0,29.50,SSW,197,0.0,0.0,95,0.04,,---,0.67,VWS V13.01,2013-08-29 18:47:00,
2013-08-29 11:49:00,65.5,63.7,29.50,SSW,197,0.0,0.0,94,0.04,,---,0.67,VWS V13.01,2013-08-29 18:49:00,
2013-08-29 11:51:00,65.5,63.7,29.50,WSW,237,0.0,0.0,94,0.04,,---,0.67,VWS V13.01,2013-08-29 18:51:00,
2013-08-29 11:52:00,65.5,63.7,29.50,WNW,287,2.2,2.2,94,0.04,,---,0.67,VWS V13.01,2013-08-29 18:52:00,
2013-08-29 11:54:00,65.5,63.7,29.50,WNW,287,2.2,2.2,94,0.04,,---,0.67,VWS V13.01,2013-08-29 18:54:00,
2013-08-29 11:56:00,65.5,63.7,29.50,WNW,287,2.2,2.2,94,0.04,,---,0.67,VWS V13.01,2013-08-29 18:56:00,
2013-08-29 11:57:00,65.5,63.7,29.50,NW,323,0.0,2.2,94,0.04,,---,0.67,VWS V13.01,2013-08-29 18:57:00,
2013-08-29 11:59:00,65.3,63.8,29.50,NW,323,0.0,0.0,95,0.04,,---,0.67,VWS V13.01,2013-08-29 18:59:00,
2013-08-29 12:01:00,65.3,63.8,29.50,NW,323,0.0,0.0,95,0.04,,---,0.67,VWS V13.01,2013-08-29 19:01:00,
2013-08-29 12:02:00,65.3,63.8,29.50,NW,323,0.0,0.0,95,0.04,,---,0.67,VWS V13.01,2013-08-29 19:02:00,
2013-08-29 12:04:00,65.3,63.8,29.50,NE,41,0.0,0.0,95,0.04,,---,0.67,VWS V13.01,2013-08-29 19:04:00,
2013-08-29 12:06:00,65.3,63.8,29.50,NE,41,0.0,0.0,95,0.04,,---,0.67,VWS V13.01,2013-08-29 19:06:00,
2013-08-29 12:07:00,65.7,64.2,29.50,NE,41,0.0,0.0,95,0.04,,---,0.67,VWS V13.01,2013-08-29 19:07:00,
2013-08-29 12:09:00,65.7,64.2,29.50,NE,41,0.0,0.0,95,0.04,,---,0.67,VWS V13.01,2013-08-29 19:09:00,
2013-08-29 12:12:00,65.8,64.4,29.50,NE,41,0.0,0.0,95,0.04,,---,0.67,VWS V13.01,2013-08-29 19:12:00,
2013-08-29 12:14:00,65.8,64.4,29.50,NE,41,0.0,0.0,95,0.04,,---,0.67,VWS V13.01,2013-08-29 19:14:00,
2013-08-29 12:17:00,66.2,64.4,29.50,NE,41,0.0,0.0,94,0.04,,---,0.67,VWS V13.01,2013-08-29 19:17:00,
2013-08-29 12:18:00,66.2,64.4,29.50,NE,41,0.0,0.0,94,0.04,,---,0.67,VWS V13.01,2013-08-29 19:18:00,
2013-08-29 12:19:00,66.2,64.4,29.50,West,263,0.0,0.0,94,0.04,,---,0.67,VWS V13.01,2013-08-29 19:19:00,
2013-08-29 12:22:00,66.2,64.4,29.50,West,263,0.0,0.0,94,0.04,,---,0.67,VWS V13.01,2013-08-29 19:22:00,
2013-08-29 12:23:00,66.2,64.4,29.50,West,263,0.0,0.0,94,0.04,,---,0.67,VWS V13.01,2013-08-29 19:23:00,
2013-08-29 12:24:00,66.2,64.4,29.50,West,263,0.0,0.0,94,0.04,,---,0.67,VWS V13.01,2013-08-29 19:24:00,
2013-08-29 12:27:00,66.2,64.4,29.50,NW,307,0.0,3.1,94,0.08,,---,0.71,VWS V13.01,2013-08-29 19:27:00,
2013-08-29 12:29:00,66.2,64.4,29.50,NW,307,0.0,0.0,94,0.08,,---,0.71,VWS V13.01,2013-08-29 19:29:00,
2013-08-29 12:32:00,66.4,64.9,29.50,SW,220,0.0,0.0,95,0.08,,---,0.71,VWS V13.01,2013-08-29 19:32:00,
2013-08-29 12:33:00,66.4,64.9,29.50,SW,220,0.0,0.0,95,0.08,,---,0.71,VWS V13.01,2013-08-29 19:33:00,
2013-08-29 12:34:00,66.4,64.9,29.50,SW,220,0.0,0.0,95,0.04,,---,0.71,VWS V13.01,2013-08-29 19:34:00,
2013-08-29 12:37:00,66.4,64.6,29.50,ESE,122,0.0,0.0,94,0.04,,---,0.71,VWS V13.01,2013-08-29 19:37:00,
2013-08-29 12:38:00,66.4,64.6,29.50,ESE,122,0.0,0.0,94,0.04,,---,0.71,VWS V13.01,2013-08-29 19:38:00,
2013-08-29 12:39:00,66.4,64.6,29.50,SSW,208,0.0,0.0,94,0.04,,---,0.71,VWS V13.01,2013-08-29 19:39:00,
2013-08-29 12:40:00,66.4,64.6,29.50,SSW,208,0.0,0.0,94,0.04,,---,0.71,VWS V13.01,2013-08-29 19:40:00,
2013-08-29 12:43:00,66.4,64.6,29.50,SW,220,3.1,3.1,94,0.04,,---,0.71,VWS V13.01,2013-08-29 19:43:00,
2013-08-29 12:44:00,66.6,64.8,29.50,SW,214,0.0,0.0,94,0.04,,---,0.71,VWS V13.01,2013-08-29 19:44:00,
2013-08-29 12:45:00,66.6,64.8,29.50,SW,214,0.0,0.0,94,0.04,,---,0.75,VWS V13.01,2013-08-29 19:45:00,
2013-08-29 12:48:00,66.6,64.8,29.50,South,177,0.0,0.0,94,0.08,,---,0.75,VWS V13.01,2013-08-29 19:48:00,
2013-08-29 12:49:00,66.6,64.8,29.50,South,177,0.0,0.0,94,0.08,,---,0.75,VWS V13.01,2013-08-29 19:49:00,
2013-08-29 12:50:00,66.6,64.8,29.50,South,177,0.0,0.0,94,0.08,,---,0.75,VWS V13.01,2013-08-29 19:50:00,
2013-08-29 12:53:00,67.1,65.3,29.50,SW,227,0.0,0.0,94,0.08,,---,0.75,VWS V13.01,2013-08-29 19:53:00,
2013-08-29 12:54:00,67.1,65.3,29.50,SW,227,0.0,0.0,94,0.08,,---,0.75,VWS V13.01,2013-08-29 19:54:00,
2013-08-29 12:55:00,67.1,65.3,29.50,ENE,69,0.0,0.0,94,0.08,,---,0.75,VWS V13.01,2013-08-29 19:55:00,
2013-08-29 12:58:00,67.1,65.3,29.50,WSW,238,0.0,0.0,94,0.08,,---,0.75,VWS V13.01,2013-08-29 19:58:00,
2013-08-29 12:59:00,67.1,65.3,29.50,WSW,238,0.0,0.0,94,0.08,,---,0.75,VWS V13.01,2013-08-29 19:59:00,
2013-08-29 13:00:00,67.3,65.5,29.50,WSW,238,0.0,0.0,94,0.08,,---,0.75,VWS V13.01,2013-08-29 20:00:00,
2013-08-29 13:03:00,67.3,65.5,29.50,West,272,3.6,3.6,94,0.08,,---,0.75,VWS V13.01,2013-08-29 20:03:00,
2013-08-29 13:04:00,67.3,65.5,29.50,WSW,245,0.0,3.6,94,0.08,,---,0.75,VWS V13.01,2013-08-29 20:04:00,
2013-08-29 13:05:00,67.3,65.5,29.50,WSW,245,0.0,0.0,94,0.08,,---,0.75,VWS V13.01,2013-08-29 20:05:00,
2013-08-29 13:08:00,67.3,65.5,29.53,South,186,0.0,0.0,94,0.08,,---,0.75,VWS V13.01,2013-08-29 20:08:00,
2013-08-29 13:09:00,67.3,65.5,29.53,South,186,0.0,0.0,94,0.08,,---,0.75,VWS V13.01,2013-08-29 20:09:00,
2013-08-29 13:10:00,67.3,65.5,29.53,South,186,0.0,0.0,94,0.08,,---,0.75,VWS V13.01,2013-08-29 20:10:00,
2013-08-29 13:13:00,67.1,65.3,29.53,NW,322,0.0,0.0,94,0.08,,---,0.75,VWS V13.01,2013-08-29 20:13:00,
2013-08-29 13:14:00,67.1,65.3,29.53,NW,322,0.0,0.0,94,0.08,,---,0.75,VWS V13.01,2013-08-29 20:14:00,
2013-08-29 13:15:00,67.1,65.3,29.53,NW,322,0.0,0.0,94,0.08,,---,0.75,VWS V13.01,2013-08-29 20:15:00,
2013-08-29 13:19:00,67.1,65.3,29.53,SW,227,3.6,3.6,94,0.08,,---,0.75,VWS V13.01,2013-08-29 20:19:00,
2013-08-29 13:20:00,67.1,65.3,29.53,SW,227,3.6,3.6,94,0.08,,---,0.75,VWS V13.01,2013-08-29 20:20:00,
2013-08-29 13:21:00,67.1,65.3,29.53,SW,227,3.6,3.6,94,0.08,,---,0.75,VWS V13.01,2013-08-29 20:21:00,
2013-08-29 13:24:00,67.1,65.3,29.53,WNW,289,0.0,0.0,94,0.08,,---,0.75,VWS V13.01,2013-08-29 20:24:00,
2013-08-29 13:25:00,67.1,65.3,29.53,WNW,289,0.0,0.0,94,0.08,,---,0.75,VWS V13.01,2013-08-29 20:25:00,
2013-08-29 13:26:00,67.1,65.3,29.53,WNW,289,0.0,0.0,94,0.08,,---,0.75,VWS V13.01,2013-08-29 20:26:00,
2013-08-29 13:29:00,67.1,65.3,29.53,WNW,289,0.0,0.0,94,0.04,,---,0.75,VWS V13.01,2013-08-29 20:29:00,
2013-08-29 13:30:00,67.1,65.3,29.53,WNW,289,0.0,0.0,94,0.04,,---,0.75,VWS V13.01,2013-08-29 20:30:00,
2013-08-29 13:31:00,67.1,65.3,29.53,NNW,330,0.0,0.0,94,0.04,,---,0.75,VWS V13.01,2013-08-29 20:31:00,
2013-08-29 13:34:00,67.1,65.3,29.53,NNW,330,0.0,0.0,94,0.04,,---,0.75,VWS V13.01,2013-08-29 20:34:00,
2013-08-29 13:35:00,67.1,65.3,29.53,NNW,330,0.0,0.0,94,0.04,,---,0.75,VWS V13.01,2013-08-29 20:35:00,
2013-08-29 13:36:00,67.1,65.3,29.53,East,80,0.0,0.0,94,0.04,,---,0.75,VWS V13.01,2013-08-29 20:36:00,
2013-08-29 13:39:00,67.5,65.4,29.53,East,80,0.0,0.0,93,0.04,,---,0.75,VWS V13.01,2013-08-29 20:39:00,
2013-08-29 13:40:00,67.5,65.4,29.53,East,80,0.0,0.0,93,0.04,,---,0.75,VWS V13.01,2013-08-29 20:40:00,
2013-08-29 13:41:00,67.5,65.4,29.53,ENE,60,0.0,0.0,93,0.04,,---,0.75,VWS V13.01,2013-08-29 20:41:00,
2013-08-29 13:44:00,67.5,65.4,29.53,ENE,60,0.0,0.0,93,0.04,,---,0.75,VWS V13.01,2013-08-29 20:44:00,
2013-08-29 13:45:00,67.5,65.4,29.53,ENE,60,0.0,0.0,93,0.04,,---,0.75,VWS V13.01,2013-08-29 20:45:00,
2013-08-29 13:46:00,67.5,65.4,29.53,WSW,247,0.0,0.0,93,0.00,,---,0.75,VWS V13.01,2013-08-29 20:46:00,
2013-08-29 13:49:00,67.3,65.2,29.53,NW,326,0.0,0.0,93,0.00,,---,0.75,VWS V13.01,2013-08-29 20:49:00,
2013-08-29 13:50:00,67.3,65.2,29.53,NW,326,0.0,0.0,93,0.00,,---,0.75,VWS V13.01,2013-08-29 20:50:00,
2013-08-29 13:51:00,67.3,65.2,29.53,NW,326,0.0,0.0,93,0.00,,---,0.75,VWS V13.01,2013-08-29 20:51:00,
2013-08-29 13:54:00,67.3,65.2,29.53,NW,326,0.0,0.0,93,0.00,,---,0.75,VWS V13.01,2013-08-29 20:54:00,
2013-08-29 13:55:00,67.3,65.2,29.53,NW,326,0.0,0.0,93,0.00,,---,0.75,VWS V13.01,2013-08-29 20:55:00,
2013-08-29 13:56:00,67.6,65.6,29.53,NW,326,0.0,0.0,93,0.00,,---,0.75,VWS V13.01,2013-08-29 20:56:00,
2013-08-29 13:57:00,67.6,65.6,29.53,NW,326,0.0,0.0,93,0.00,,---,0.75,VWS V13.01,2013-08-29 20:57:00,
2013-08-29 14:00:00,67.6,65.6,29.53,SE,128,0.0,0.0,93,0.00,,---,0.75,VWS V13.01,2013-08-29 21:00:00,
2013-08-29 14:01:00,68.0,65.9,29.53,SE,128,0.0,0.0,93,0.00,,---,0.75,VWS V13.01,2013-08-29 21:01:00,
2013-08-29 14:02:00,68.0,65.9,29.53,SE,128,0.0,0.0,93,0.00,,---,0.75,VWS V13.01,2013-08-29 21:02:00,
2013-08-29 14:05:00,68.0,65.9,29.53,SW,218,0.0,0.0,93,0.00,,---,0.75,VWS V13.01,2013-08-29 21:05:00,
2013-08-29 14:06:00,68.9,66.8,29.53,SW,218,0.0,0.0,93,0.00,,---,0.75,VWS V13.01,2013-08-29 21:06:00,
2013-08-29 14:07:00,68.9,66.8,29.53,SW,218,0.0,0.0,93,0.00,,---,0.75,VWS V13.01,2013-08-29 21:07:00,
2013-08-29 14:10:00,68.9,66.8,29.53,ENE,78,2.2,2.2,93,0.00,,---,0.75,VWS V13.01,2013-08-29 21:10:00,
2013-08-29 14:11:00,68.9,66.8,29.53,ENE,78,2.2,2.2,93,0.00,,---,0.75,VWS V13.01,2013-08-29 21:11:00,
2013-08-29 14:12:00,68.9,66.8,29.53,ENE,78,0.0,0.0,93,0.00,,---,0.75,VWS V13.01,2013-08-29 21:12:00,
2013-08-29 14:15:00,69.3,66.8,29.53,ENE,78,0.0,0.0,92,0.00,,---,0.75,VWS V13.01,2013-08-29 21:15:00,
2013-08-29 14:16:00,69.3,66.8,29.53,ENE,78,0.0,0.0,92,0.00,,---,0.75,VWS V13.01,2013-08-29 21:16:00,
2013-08-29 14:17:00,69.3,66.8,29.53,SE,145,0.0,0.0,92,0.00,,---,0.75,VWS V13.01,2013-08-29 21:17:00,
2013-08-29 14:20:00,69.3,66.8,29.53,ENE,67,0.0,0.0,92,0.00,,---,0.75,VWS V13.01,2013-08-29 21:20:00,
2013-08-29 14:21:00,69.3,66.8,29.53,ENE,67,0.0,0.0,92,0.00,,---,0.75,VWS V13.01,2013-08-29 21:21:00,
2013-08-29 14:22:00,69.3,66.8,29.53,South,184,0.0,0.0,92,0.00,,---,0.75,VWS V13.01,2013-08-29 21:22:00,
2013-08-29 14:23:00,69.3,66.8,29.53,South,184,0.0,0.0,92,0.00,,---,0.75,VWS V13.01,2013-08-29 21:23:00,
2013-08-29 14:25:00,69.8,67.1,29.53,WSW,241,2.2,2.2,91,0.00,,---,0.75,VWS V13.01,2013-08-29 21:25:00,
2013-08-29 14:26:00,69.8,67.1,29.53,WSW,241,0.0,2.2,91,0.00,,---,0.75,VWS V13.01,2013-08-29 21:26:00,
2013-08-29 14:27:00,69.8,67.1,29.53,WSW,241,0.0,0.0,91,0.00,,---,0.75,VWS V13.01,2013-08-29 21:27:00,
2013-08-29 14:28:00,69.8,67.1,29.53,WSW,241,0.0,0.0,91,0.00,,---,0.75,VWS V13.01,2013-08-29 21:28:00,
2013-08-29 14:31:00,69.8,67.1,29.53,WSW,241,0.0,0.0,91,0.00,,---,0.75,VWS V13.01,2013-08-29 21:31:00,
2013-08-29 14:32:00,69.1,66.3,29.53,WSW,241,0.0,0.0,91,0.00,,---,0.75,VWS V13.01,2013-08-29 21:32:00,
2013-08-29 14:33:00,69.3,66.5,29.53,WSW,241,0.0,0.0,91,0.00,,---,0.75,VWS V13.01,2013-08-29 21:33:00,
2013-08-29 14:36:00,69.3,66.5,29.53,SSE,147,0.0,0.0,91,0.00,,---,0.75,VWS V13.01,2013-08-29 21:36:00,
2013-08-29 14:37:00,69.3,66.5,29.53,SSE,147,0.0,0.0,91,0.00,,---,0.75,VWS V13.01,2013-08-29 21:37:00,
2013-08-29 14:38:00,69.3,66.5,29.53,East,96,0.0,0.0,91,0.00,,---,0.75,VWS V13.01,2013-08-29 21:38:00,
2013-08-29 14:41:00,69.3,66.5,29.53,East,96,0.0,0.0,91,0.00,,---,0.75,VWS V13.01,2013-08-29 21:41:00,
2013-08-29 14:42:00,69.8,66.7,29.53,East,96,0.0,0.0,90,0.00,,---,0.75,VWS V13.01,2013-08-29 21:42:00,
2013-08-29 14:43:00,69.8,66.7,29.53,East,97,0.0,0.0,90,0.00,,---,0.75,VWS V13.01,2013-08-29 21:43:00,
2013-08-29 14:46:00,69.8,66.7,29.53,East,97,0.0,0.0,90,0.00,,---,0.75,VWS V13.01,2013-08-29 21:46:00,
2013-08-29 14:47:00,69.8,66.7,29.53,East,97,0.0,0.0,90,0.00,,---,0.75,VWS V13.01,2013-08-29 21:47:00,
2013-08-29 14:48:00,69.8,66.7,29.53,East,97,0.0,0.0,90,0.00,,---,0.75,VWS V13.01,2013-08-29 21:48:00,
2013-08-29 14:51:00,69.8,66.4,29.53,East,97,0.0,0.0,89,0.00,,---,0.75,VWS V13.01,2013-08-29 21:51:00,
2013-08-29 14:52:00,69.8,66.4,29.53,West,275,0.0,0.0,89,0.00,,---,0.75,VWS V13.01,2013-08-29 21:52:00,
2013-08-29 14:54:00,69.8,66.4,29.53,West,275,0.0,0.0,89,0.00,,---,0.75,VWS V13.01,2013-08-29 21:54:00,
2013-08-29 14:56:00,69.8,66.4,29.53,West,275,0.0,0.0,89,0.00,,---,0.75,VWS V13.01,2013-08-29 21:56:00,
2013-08-29 14:57:00,69.8,66.4,29.53,West,275,0.0,0.0,89,0.00,,---,0.75,VWS V13.01,2013-08-29 21:57:00,
2013-08-29 14:59:00,69.8,66.4,29.53,West,275,0.0,0.0,89,0.00,,---,0.75,VWS V13.01,2013-08-29 21:59:00,
2013-08-29 15:01:00,69.6,66.6,29.53,West,275,0.0,0.0,90,0.00,,---,0.75,VWS V13.01,2013-08-29 22:01:00,
2013-08-29 15:02:00,69.8,66.7,29.53,West,275,0.0,0.0,90,0.00,,---,0.75,VWS V13.01,2013-08-29 22:02:00,
2013-08-29 15:03:00,69.8,66.7,29.53,West,275,0.0,0.0,90,0.00,,---,0.75,VWS V13.01,2013-08-29 22:03:00,
2013-08-29 15:04:00,69.8,66.7,29.53,West,275,0.0,0.0,90,0.00,,---,0.75,VWS V13.01,2013-08-29 22:04:00,
2013-08-29 15:06:00,69.8,66.7,29.53,SE,131,4.0,4.0,90,0.00,,---,0.75,VWS V13.01,2013-08-29 22:06:00,
2013-08-29 15:08:00,69.8,66.7,29.53,SE,131,4.0,4.0,90,0.00,,---,0.75,VWS V13.01,2013-08-29 22:08:00,
2013-08-29 15:09:00,70.2,66.8,29.53,SE,131,4.0,4.0,89,0.00,,---,0.75,VWS V13.01,2013-08-29 22:09:00,
2013-08-29 15:11:00,70.2,66.8,29.53,ESE,120,2.7,2.7,89,0.00,,---,0.75,VWS V13.01,2013-08-29 22:11:00,
2013-08-29 15:12:00,70.2,66.8,29.53,NE,38,3.1,3.1,89,0.00,,---,0.75,VWS V13.01,2013-08-29 22:12:00,
2013-08-29 15:13:00,70.2,66.8,29.53,NE,38,3.1,3.1,89,0.00,,---,0.75,VWS V13.01,2013-08-29 22:13:00,
2013-08-29 15:14:00,70.2,66.8,29.53,NE,38,0.0,3.1,89,0.00,,---,0.75,VWS V13.01,2013-08-29 22:14:00,
2013-08-29 15:16:00,70.2,66.8,29.53,NE,38,0.0,0.0,89,0.00,,---,0.75,VWS V13.01,2013-08-29 22:16:00,
2013-08-29 15:17:00,70.2,66.8,29.53,NE,38,0.0,0.0,89,0.00,,---,0.75,VWS V13.01,2013-08-29 22:17:00,
2013-08-29 15:18:00,70.3,66.9,29.53,NE,38,0.0,0.0,89,0.00,,---,0.75,VWS V13.01,2013-08-29 22:18:00,
2013-08-29 15:20:00,70.3,66.9,29.53,ENE,66,0.0,0.0,89,0.00,,---,0.75,VWS V13.01,2013-08-29 22:20:00,
2013-08-29 15:21:00,70.3,66.9,29.53,SSE,155,0.0,0.0,89,0.00,,---,0.75,VWS V13.01,2013-08-29 22:21:00,
2013-08-29 15:22:00,70.3,66.9,29.53,SSE,155,0.0,0.0,89,0.00,,---,0.75,VWS V13.01,2013-08-29 22:22:00,
2013-08-29 15:23:00,70.3,66.9,29.53,SE,124,3.1,3.1,89,0.00,,---,0.75,VWS V13.01,2013-08-29 22:23:00,
2013-08-29 15:25:00,70.3,66.9,29.53,SE,124,3.1,3.1,89,0.00,,---,0.75,VWS V13.01,2013-08-29 22:25:00,
2013-08-29 15:26:00,70.3,66.9,29.53,NE,52,2.7,2.7,89,0.00,,---,0.75,VWS V13.01,2013-08-29 22:26:00,
2013-08-29 15:27:00,70.9,67.2,29.53,NE,52,2.7,2.7,88,0.00,,---,0.75,VWS V13.01,2013-08-29 22:27:00,
2013-08-29 15:28:00,70.9,67.2,29.53,SSE,166,0.0,0.0,88,0.00,,---,0.75,VWS V13.01,2013-08-29 22:28:00,
2013-08-29 15:30:00,70.9,67.2,29.53,ENE,65,2.7,2.7,88,0.00,,---,0.75,VWS V13.01,2013-08-29 22:30:00,
2013-08-29 15:31:00,70.9,67.2,29.53,ENE,65,2.7,2.7,88,0.00,,---,0.75,VWS V13.01,2013-08-29 22:31:00,
2013-08-29 15:32:00,70.9,67.2,29.53,East,94,0.0,0.0,88,0.00,,---,0.75,VWS V13.01,2013-08-29 22:32:00,
2013-08-29 15:33:00,71.1,67.3,29.53,East,94,0.0,0.0,88,0.00,,---,0.75,VWS V13.01,2013-08-29 22:33:00,
2013-08-29 15:34:00,71.1,67.3,29.53,East,94,0.0,0.0,88,0.00,,---,0.75,VWS V13.01,2013-08-29 22:34:00,
2013-08-29 15:35:00,71.1,67.3,29.53,East,94,0.0,0.0,88,0.00,,---,0.75,VWS V13.01,2013-08-29 22:35:00,
2013-08-29 15:36:00,70.7,66.7,29.53,East,88,0.0,0.0,87,0.00,,---,0.75,VWS V13.01,2013-08-29 22:36:00,
2013-08-29 15:37:00,70.7,66.7,29.53,East,88,0.0,0.0,87,0.00,,---,0.75,VWS V13.01,2013-08-29 22:37:00,
2013-08-29 15:39:00,70.7,66.7,29.53,ENE,76,0.0,0.0,87,0.00,,---,0.75,VWS V13.01,2013-08-29 22:39:00,
2013-08-29 15:40:00,70.7,66.7,29.53,ENE,76,0.0,0.0,87,0.00,,---,0.75,VWS V13.01,2013-08-29 22:40:00,
2013-08-29 15:41:00,70.7,66.7,29.53,ENE,76,0.0,0.0,87,0.00,,---,0.75,VWS V13.01,2013-08-29 22:41:00,
2013-08-29 15:42:00,70.7,66.7,29.53,ENE,76,0.0,0.0,87,0.00,,---,0.75,VWS V13.01,2013-08-29 22:42:00,
2013-08-29 15:44:00,70.7,66.7,29.53,ENE,76,0.0,0.0,87,0.00,,---,0.75,VWS V13.01,2013-08-29 22:44:00,
2013-08-29 15:45:00,70.7,66.7,29.53,ENE,76,0.0,0.0,87,0.00,,---,0.75,VWS V13.01,2013-08-29 22:45:00,
2013-08-29 15:47:00,71.2,66.8,29.53,ENE,76,0.0,0.0,86,0.00,,---,0.75,VWS V13.01,2013-08-29 22:47:00,
2013-08-29 15:49:00,71.2,66.8,29.53,SE,146,0.0,0.0,86,0.00,,---,0.75,VWS V13.01,2013-08-29 22:49:00,
2013-08-29 15:50:00,71.2,66.8,29.53,SE,146,0.0,0.0,86,0.00,,---,0.75,VWS V13.01,2013-08-29 22:50:00,
2013-08-29 15:52:00,71.2,66.8,29.53,SE,146,0.0,0.0,86,0.00,,---,0.75,VWS V13.01,2013-08-29 22:52:00,
2013-08-29 15:54:00,71.1,67.0,29.53,SE,146,0.0,0.0,87,0.00,,---,0.75,VWS V13.01,2013-08-29 22:54:00,
2013-08-29 15:55:00,71.2,67.2,29.53,SE,146,0.0,0.0,87,0.00,,---,0.75,VWS V13.01,2013-08-29 22:55:00,
2013-08-29 15:57:00,71.2,67.2,29.53,SE,146,0.0,0.0,87,0.00,,---,0.75,VWS V13.01,2013-08-29 22:57:00,
2013-08-29 15:59:00,71.2,67.2,29.53,ENE,70,0.0,0.0,87,0.00,,---,0.75,VWS V13.01,2013-08-29 22:59:00,
2013-08-29 16:00:00,71.2,67.2,29.53,ENE,75,2.7,2.7,87,0.00,,---,0.75,VWS V13.01,2013-08-29 23:00:00,
2013-08-29 16:01:00,71.2,67.2,29.53,ENE,75,2.7,2.7,87,0.00,,---,0.75,VWS V13.01,2013-08-29 23:01:00,
2013-08-29 16:02:00,71.2,67.2,29.53,ENE,75,2.7,2.7,87,0.00,,---,0.75,VWS V13.01,2013-08-29 23:02:00,
2013-08-29 16:04:00,72.3,66.9,29.50,ENE,60,4.0,4.0,83,0.00,,---,0.75,VWS V13.01,2013-08-29 23:04:00,
2013-08-29 16:06:00,72.3,66.9,29.50,ENE,78,3.1,4.0,83,0.00,,---,0.75,VWS V13.01,2013-08-29 23:06:00,
2013-08-29 16:07:00,72.3,66.9,29.50,ENE,78,3.1,3.1,83,0.00,,---,0.75,VWS V13.01,2013-08-29 23:07:00,
2013-08-29 16:08:00,72.3,66.9,29.50,ENE,78,3.1,3.1,83,0.00,,---,0.75,VWS V13.01,2013-08-29 23:08:00,
2013-08-29 16:09:00,72.3,66.9,29.50,ENE,78,3.1,3.1,83,0.00,,---,0.75,VWS V13.01,2013-08-29 23:09:00,
2013-08-29 16:11:00,72.3,66.9,29.50,ENE,78,3.1,3.1,83,0.00,,---,0.75,VWS V13.01,2013-08-29 23:11:00,
2013-08-29 16:12:00,72.3,66.9,29.50,ESE,103,2.2,2.2,83,0.00,,---,0.75,VWS V13.01,2013-08-29 23:12:00,
2013-08-29 16:13:00,72.9,66.7,29.50,ESE,103,2.2,2.2,81,0.00,,---,0.75,VWS V13.01,2013-08-29 23:13:00,
2013-08-29 16:15:00,72.9,66.7,29.50,ESE,103,2.2,2.2,81,0.00,,---,0.75,VWS V13.01,2013-08-29 23:15:00,
2013-08-29 16:16:00,72.9,66.7,29.50,ESE,103,0.0,0.0,81,0.00,,---,0.75,VWS V13.01,2013-08-29 23:16:00,
2013-08-29 16:17:00,72.9,66.7,29.50,ESE,103,0.0,0.0,81,0.00,,---,0.75,VWS V13.01,2013-08-29 23:17:00,
2013-08-29 16:18:00,72.1,66.0,29.50,ESE,103,0.0,0.0,81,0.00,,---,0.75,VWS V13.01,2013-08-29 23:18:00,
2013-08-29 16:20:00,72.1,66.0,29.50,SE,144,2.7,2.7,81,0.00,,---,0.75,VWS V13.01,2013-08-29 23:20:00,
2013-08-29 16:21:00,72.1,66.0,29.50,SE,144,2.7,2.7,81,0.00,,---,0.75,VWS V13.01,2013-08-29 23:21:00,
2013-08-29 16:22:00,72.9,67.4,29.50,SE,144,2.7,2.7,83,0.00,,---,0.75,VWS V13.01,2013-08-29 23:22:00,
2013-08-29 16:23:00,72.9,67.4,29.50,SE,144,2.7,2.7,83,0.00,,---,0.75,VWS V13.01,2013-08-29 23:23:00,
2013-08-29 16:25:00,72.9,67.4,29.50,NNE,32,3.1,3.1,83,0.00,,---,0.75,VWS V13.01,2013-08-29 23:25:00,
2013-08-29 16:26:00,72.9,67.4,29.50,NNE,32,3.1,3.1,83,0.00,,---,0.75,VWS V13.01,2013-08-29 23:26:00,
2013-08-29 16:27:00,72.9,67.4,29.50,NNE,32,3.1,3.1,83,0.00,,---,0.75,VWS V13.01,2013-08-29 23:27:00,
2013-08-29 16:28:00,72.9,67.4,29.50,NNE,32,3.1,3.1,83,0.00,,---,0.75,VWS V13.01,2013-08-29 23:28:00,
2013-08-29 16:30:00,72.9,67.4,29.50,SE,125,2.2,2.2,83,0.00,,---,0.75,VWS V13.01,2013-08-29 23:30:00,
2013-08-29 16:31:00,73.2,67.4,29.50,East,86,0.0,2.2,82,0.00,,---,0.75,VWS V13.01,2013-08-29 23:31:00,
2013-08-29 16:32:00,73.2,67.4,29.50,East,86,0.0,0.0,82,0.00,,---,0.75,VWS V13.01,2013-08-29 23:32:00,
2013-08-29 16:33:00,72.9,67.4,29.50,East,86,0.0,0.0,83,0.00,,---,0.75,VWS V13.01,2013-08-29 23:33:00,
2013-08-29 16:35:00,72.9,67.4,29.50,East,86,0.0,0.0,83,0.00,,---,0.75,VWS V13.01,2013-08-29 23:35:00,
2013-08-29 16:37:00,72.9,67.4,29.50,East,86,0.0,0.0,83,0.00,,---,0.75,VWS V13.01,2013-08-29 23:37:00,
2013-08-29 16:38:00,72.9,67.4,29.50,East,86,0.0,0.0,83,0.00,,---,0.75,VWS V13.01,2013-08-29 23:38:00,
2013-08-29 16:40:00,72.0,66.5,29.50,East,86,0.0,0.0,83,0.00,,---,0.75,VWS V13.01,2013-08-29 23:40:00,
2013-08-29 16:42:00,71.8,66.3,29.50,East,86,0.0,0.0,83,0.00,,---,0.75,VWS V13.01,2013-08-29 23:42:00,
2013-08-29 16:43:00,71.8,66.3,29.50,East,86,0.0,0.0,83,0.00,,---,0.75,VWS V13.01,2013-08-29 23:43:00,
2013-08-29 16:45:00,71.8,66.3,29.50,East,86,0.0,0.0,83,0.00,,---,0.75,VWS V13.01,2013-08-29 23:45:00,
2013-08-29 16:47:00,71.8,66.3,29.50,East,86,0.0,0.0,83,0.00,,---,0.75,VWS V13.01,2013-08-29 23:47:00,
2013-08-29 16:48:00,71.8,66.3,29.50,East,86,0.0,0.0,83,0.00,,---,0.75,VWS V13.01,2013-08-29 23:48:00,
2013-08-29 16:50:00,71.8,67.0,29.50,East,86,0.0,0.0,85,0.00,,---,0.75,VWS V13.01,2013-08-29 23:50:00,
2013-08-29 16:52:00,71.8,67.0,29.50,East,86,0.0,0.0,85,0.00,,---,0.75,VWS V13.01,2013-08-29 23:52:00,
2013-08-29 16:53:00,71.8,67.0,29.50,East,87,0.0,0.0,85,0.00,,---,0.75,VWS V13.01,2013-08-29 23:53:00,
2013-08-29 16:55:00,71.8,67.0,29.50,East,87,0.0,0.0,85,0.00,,---,0.75,VWS V13.01,2013-08-29 23:55:00,
2013-08-29 16:57:00,71.8,67.0,29.50,East,87,0.0,0.0,85,0.00,,---,0.75,VWS V13.01,2013-08-29 23:57:00,
2013-08-29 16:58:00,71.2,66.8,29.50,East,87,0.0,0.0,86,0.00,,---,0.75,VWS V13.01,2013-08-29 23:58:00,
2013-08-29 16:59:00,71.2,66.8,29.50,East,87,0.0,0.0,86,0.00,,---,0.75,VWS V13.01,2013-08-29 23:59:00,
2013-08-29 17:00:00,71.1,66.7,29.50,East,86,0.0,0.0,86,0.00,,---,0.75,VWS V13.01,2013-08-30 00:00:00,
2013-08-29 17:02:00,71.1,66.7,29.50,East,86,0.0,0.0,86,0.00,,---,0.75,VWS V13.01,2013-08-30 00:02:00,
2013-08-29 17:03:00,71.1,66.7,29.50,East,86,0.0,0.0,86,0.00,,---,0.75,VWS V13.01,2013-08-30 00:03:00,
2013-08-29 17:04:00,71.1,66.7,29.50,East,86,0.0,0.0,86,0.00,,---,0.75,VWS V13.01,2013-08-30 00:04:00,
2013-08-29 17:06:00,71.1,66.7,29.50,East,86,0.0,0.0,86,0.00,,---,0.75,VWS V13.01,2013-08-30 00:06:00,
2013-08-29 17:07:00,71.1,67.3,29.50,East,86,0.0,0.0,88,0.00,,---,0.75,VWS V13.01,2013-08-30 00:07:00,
2013-08-29 17:08:00,71.1,67.3,29.50,East,86,0.0,0.0,88,0.00,,---,0.75,VWS V13.01,2013-08-30 00:08:00,
2013-08-29 17:09:00,71.1,67.3,29.50,East,87,0.0,0.0,88,0.00,,---,0.75,VWS V13.01,2013-08-30 00:09:00,
2013-08-29 17:11:00,71.1,67.3,29.50,East,86,0.0,0.0,88,0.00,,---,0.75,VWS V13.01,2013-08-30 00:11:00,
2013-08-29 17:12:00,71.1,67.3,29.50,East,86,0.0,0.0,88,0.00,,---,0.75,VWS V13.01,2013-08-30 00:12:00,
2013-08-29 17:13:00,71.1,67.3,29.50,East,86,0.0,0.0,88,0.00,,---,0.75,VWS V13.01,2013-08-30 00:13:00,
2013-08-29 17:14:00,71.1,67.3,29.50,East,86,0.0,0.0,88,0.00,,---,0.75,VWS V13.01,2013-08-30 00:14:00,
2013-08-29 17:16:00,70.3,67.3,29.50,East,86,0.0,0.0,90,0.04,,---,0.79,VWS V13.01,2013-08-30 00:16:00,
2013-08-29 17:17:00,70.3,67.3,29.50,East,86,0.0,0.0,90,0.04,,---,0.79,VWS V13.01,2013-08-30 00:17:00,
2013-08-29 17:18:00,70.3,67.3,29.50,NNW,343,0.0,0.0,90,0.04,,---,0.79,VWS V13.01,2013-08-30 00:18:00,
2013-08-29 17:19:00,70.3,67.3,29.53,NNW,343,0.0,0.0,90,0.04,,---,0.79,VWS V13.01,2013-08-30 00:19:00,
2013-08-29 17:21:00,70.3,67.3,29.53,NNW,343,0.0,0.0,90,0.04,,---,0.79,VWS V13.01,2013-08-30 00:21:00,
2013-08-29 17:22:00,70.3,67.3,29.53,NNW,343,0.0,0.0,90,0.04,,---,0.79,VWS V13.01,2013-08-30 00:22:00,
2013-08-29 17:23:00,70.3,67.3,29.53,NNW,343,0.0,0.0,90,0.04,,---,0.79,VWS V13.01,2013-08-30 00:23:00,
2013-08-29 17:24:00,70.3,67.3,29.53,NNW,343,0.0,0.0,90,0.04,,---,0.79,VWS V13.01,2013-08-30 00:24:00,
2013-08-29 17:27:00,70.2,67.1,29.53,NNW,343,0.0,0.0,90,0.08,,---,0.83,VWS V13.01,2013-08-30 00:27:00,
2013-08-29 17:28:00,70.2,67.1,29.53,NNW,343,0.0,0.0,90,0.08,,---,0.83,VWS V13.01,2013-08-30 00:28:00,
2013-08-29 17:39:00,68.7,66.0,29.53,WNW,288,0.0,0.0,91,0.00,,---,0.75,VWS V13.01,2013-08-30 00:39:00,
2013-08-29 17:40:00,68.7,66.0,29.53,WNW,288,0.0,0.0,91,0.24,,---,0.98,VWS V13.01,2013-08-30 00:40:00,
2013-08-29 17:44:00,68.4,65.6,29.53,SSW,200,0.0,3.1,91,0.24,,---,0.98,VWS V13.01,2013-08-30 00:44:00,
2013-08-29 17:45:00,68.4,65.6,29.53,SSW,200,0.0,3.1,91,0.24,,---,0.98,VWS V13.01,2013-08-30 00:45:00,
2013-08-29 17:49:00,68.4,65.6,29.53,WSW,257,0.0,2.7,91,0.24,,---,0.98,VWS V13.01,2013-08-30 00:49:00,
2013-08-29 17:50:00,68.4,65.6,29.53,WSW,257,0.0,2.7,91,0.24,,---,0.98,VWS V13.01,2013-08-30 00:50:00,
2013-08-29 17:51:00,68.5,65.8,29.53,South,171,0.0,0.0,91,0.24,,---,0.98,VWS V13.01,2013-08-30 00:51:00,
2013-08-29 17:54:00,68.5,65.8,29.53,SSW,209,0.0,3.1,91,0.24,,---,0.98,VWS V13.01,2013-08-30 00:54:00,
2013-08-29 17:55:00,68.5,65.8,29.53,SSW,209,0.0,0.0,91,0.24,,---,0.98,VWS V13.01,2013-08-30 00:55:00,
2013-08-29 17:56:00,68.5,65.8,29.53,SSW,203,0.0,2.7,91,0.24,,---,0.98,VWS V13.01,2013-08-30 00:56:00,
2013-08-29 17:57:00,68.5,65.8,29.53,South,184,0.0,2.7,91,0.24,,---,0.98,VWS V13.01,2013-08-30 00:57:00,
2013-08-29 18:00:00,68.5,65.8,29.53,SW,236,0.0,0.0,91,0.24,,---,0.98,VWS V13.01,2013-08-30 01:00:00,
2013-08-29 18:02:00,68.4,65.6,29.53,West,277,0.0,0.0,91,0.24,,---,0.98,VWS V13.01,2013-08-30 01:02:00,
2013-08-29 18:04:00,68.2,65.8,29.53,WSW,237,0.0,0.0,92,0.24,,---,0.98,VWS V13.01,2013-08-30 01:04:00,
2013-08-29 18:05:00,68.2,65.8,29.53,WSW,237,0.0,0.0,92,0.24,,---,0.98,VWS V13.01,2013-08-30 01:05:00,
2013-08-29 18:06:00,68.2,65.8,29.53,WSW,258,2.7,2.7,92,0.24,,---,0.98,VWS V13.01,2013-08-30 01:06:00,
2013-08-29 18:07:00,68.2,65.8,29.53,WSW,256,3.1,3.1,92,0.24,,---,0.98,VWS V13.01,2013-08-30 01:07:00,
2013-08-29 18:10:00,68.2,65.8,29.53,SE,140,2.7,3.1,92,0.24,,---,0.98,VWS V13.01,2013-08-30 01:10:00,
2013-08-29 18:11:00,68.2,65.8,29.53,WSW,252,4.0,4.0,92,0.24,,---,0.98,VWS V13.01,2013-08-30 01:11:00,
2013-08-29 18:13:00,68.2,65.8,29.53,WSW,243,0.0,0.0,92,0.24,,---,0.98,VWS V13.01,2013-08-30 01:13:00,
2013-08-29 18:15:00,68.0,65.3,29.53,SSW,210,3.1,3.1,91,0.24,,---,0.98,VWS V13.01,2013-08-30 01:15:00,
2013-08-29 18:16:00,68.0,65.3,29.53,SSW,204,2.7,2.7,91,0.20,,---,0.98,VWS V13.01,2013-08-30 01:16:00,
2013-08-29 18:18:00,68.0,65.3,29.53,SW,231,0.0,0.0,91,0.20,,---,0.98,VWS V13.01,2013-08-30 01:18:00,
2013-08-29 18:19:00,68.0,65.3,29.53,SW,231,0.0,0.0,91,0.20,,---,0.98,VWS V13.01,2013-08-30 01:19:00,
2013-08-29 18:20:00,67.8,65.4,29.53,SSW,208,0.0,0.0,92,0.20,,---,0.98,VWS V13.01,2013-08-30 01:20:00,
2013-08-29 18:23:00,67.8,65.4,29.53,West,280,2.2,2.2,92,0.20,,---,0.98,VWS V13.01,2013-08-30 01:23:00,
2013-08-29 18:24:00,67.8,65.4,29.53,West,281,3.1,3.1,92,0.20,,---,0.98,VWS V13.01,2013-08-30 01:24:00,
2013-08-29 18:25:00,67.6,65.2,29.53,West,281,3.1,3.1,92,0.20,,---,0.98,VWS V13.01,2013-08-30 01:25:00,
2013-08-29 18:28:00,67.6,65.2,29.53,West,281,3.1,3.1,92,0.16,,---,0.98,VWS V13.01,2013-08-30 01:28:00,
2013-08-29 18:30:00,67.6,65.2,29.53,NNW,335,0.0,0.0,92,0.16,,---,0.98,VWS V13.01,2013-08-30 01:30:00,
2013-08-29 18:33:00,67.5,65.1,29.53,SW,226,0.0,0.0,92,0.16,,---,0.98,VWS V13.01,2013-08-30 01:33:00,
2013-08-29 18:35:00,67.5,65.1,29.53,SW,226,0.0,0.0,92,0.16,,---,0.98,VWS V13.01,2013-08-30 01:35:00,
2013-08-29 18:39:00,67.3,65.2,29.53,WSW,237,0.0,0.0,93,0.20,,---,1.02,VWS V13.01,2013-08-30 01:39:00,
2013-08-29 18:40:00,67.3,65.2,29.53,WSW,237,0.0,0.0,93,0.04,,---,1.02,VWS V13.01,2013-08-30 01:40:00,
2013-08-29 18:44:00,67.3,65.2,29.53,South,184,0.0,0.0,93,0.08,,---,1.06,VWS V13.01,2013-08-30 01:44:00,
2013-08-29 18:45:00,67.5,65.4,29.53,South,184,0.0,0.0,93,0.08,,---,1.06,VWS V13.01,2013-08-30 01:45:00,
2013-08-29 18:46:00,67.5,65.4,29.53,SW,230,0.0,0.0,93,0.08,,---,1.06,VWS V13.01,2013-08-30 01:46:00,
2013-08-29 18:50:00,67.3,65.2,29.56,South,179,3.1,3.1,93,0.16,,---,1.14,VWS V13.01,2013-08-30 01:50:00,
2013-08-29 18:51:00,67.3,65.2,29.56,South,179,3.1,3.1,93,0.16,,---,1.14,VWS V13.01,2013-08-30 01:51:00,
2013-08-29 18:55:00,67.3,65.2,29.56,SW,235,3.6,3.6,93,0.16,,---,1.18,VWS V13.01,2013-08-30 01:55:00,
2013-08-29 18:56:00,67.3,65.2,29.56,SW,235,3.6,3.6,93,0.20,,---,1.18,VWS V13.01,2013-08-30 01:56:00,
2013-08-29 19:00:00,66.9,64.8,29.56,ESE,122,0.0,0.0,93,0.20,,---,1.18,VWS V13.01,2013-08-30 02:00:00,
2013-08-29 19:01:00,66.9,64.8,29.56,ESE,122,0.0,0.0,93,0.20,,---,1.18,VWS V13.01,2013-08-30 02:01:00,
2013-08-29 19:05:00,66.9,64.8,29.56,ESE,122,0.0,0.0,93,0.20,,---,1.18,VWS V13.01,2013-08-30 02:05:00,
2013-08-29 19:06:00,66.9,64.8,29.56,ESE,122,0.0,0.0,93,0.20,,---,1.18,VWS V13.01,2013-08-30 02:06:00,
2013-08-29 19:07:00,66.7,64.7,29.56,ESE,122,0.0,0.0,93,0.20,,---,1.18,VWS V13.01,2013-08-30 02:07:00,
2013-08-29 19:11:00,66.7,64.7,29.56,ESE,122,0.0,0.0,93,0.20,,---,1.18,VWS V13.01,2013-08-30 02:11:00,
2013-08-29 19:12:00,66.7,64.7,29.56,ESE,122,0.0,0.0,93,0.20,,---,1.18,VWS V13.01,2013-08-30 02:12:00,
2013-08-29 19:16:00,66.9,64.8,29.56,WSW,238,0.0,0.0,93,0.24,,---,1.22,VWS V13.01,2013-08-30 02:16:00,
2013-08-29 19:17:00,67.1,65.3,29.56,WSW,238,0.0,0.0,94,0.24,,---,1.22,VWS V13.01,2013-08-30 02:17:00,
2013-08-29 19:18:00,67.1,65.3,29.56,WSW,238,0.0,0.0,94,0.24,,---,1.22,VWS V13.01,2013-08-30 02:18:00,
2013-08-29 19:21:00,67.1,65.3,29.56,WSW,238,0.0,0.0,94,0.24,,---,1.22,VWS V13.01,2013-08-30 02:21:00,
2013-08-29 19:22:00,67.1,65.3,29.56,WSW,238,0.0,0.0,94,0.24,,---,1.22,VWS V13.01,2013-08-30 02:22:00,
2013-08-29 19:23:00,67.1,65.3,29.56,WSW,238,0.0,0.0,94,0.24,,---,1.22,VWS V13.01,2013-08-30 02:23:00,
2013-08-29 19:26:00,67.1,65.3,29.56,WSW,238,0.0,0.0,94,0.24,,---,1.22,VWS V13.01,2013-08-30 02:26:00,
2013-08-29 19:27:00,67.3,65.2,29.56,WSW,238,0.0,0.0,93,0.24,,---,1.22,VWS V13.01,2013-08-30 02:27:00,
2013-08-29 19:28:00,67.3,65.2,29.56,WSW,238,0.0,0.0,93,0.24,,---,1.22,VWS V13.01,2013-08-30 02:28:00,
2013-08-29 19:31:00,67.1,65.0,29.56,ENE,69,0.0,0.0,93,0.24,,---,1.22,VWS V13.01,2013-08-30 02:31:00,
2013-08-29 19:32:00,66.9,64.8,29.56,ENE,69,0.0,0.0,93,0.24,,---,1.22,VWS V13.01,2013-08-30 02:32:00,
2013-08-29 19:33:00,66.9,64.8,29.56,ENE,69,0.0,0.0,93,0.24,,---,1.22,VWS V13.01,2013-08-30 02:33:00,
2013-08-29 19:34:00,66.7,65.0,29.56,NE,40,0.0,0.0,94,0.24,,---,1.22,VWS V13.01,2013-08-30 02:34:00,
2013-08-29 19:36:00,66.9,65.1,29.56,WSW,257,0.0,0.0,94,0.24,,---,1.22,VWS V13.01,2013-08-30 02:36:00,
2013-08-29 19:38:00,66.7,65.0,29.56,WSW,257,0.0,0.0,94,0.24,,---,1.22,VWS V13.01,2013-08-30 02:38:00,
2013-08-29 19:40:00,66.7,65.0,29.56,NW,321,0.0,0.0,94,0.20,,---,1.22,VWS V13.01,2013-08-30 02:40:00,
2013-08-29 19:41:00,66.7,65.0,29.56,NW,321,0.0,0.0,94,0.20,,---,1.22,VWS V13.01,2013-08-30 02:41:00,
2013-08-29 19:44:00,66.6,64.8,29.56,NW,321,0.0,0.0,94,0.20,,---,1.22,VWS V13.01,2013-08-30 02:44:00,
2013-08-29 19:46:00,66.6,64.8,29.56,NW,321,0.0,0.0,94,0.16,,---,1.22,VWS V13.01,2013-08-30 02:46:00,
2013-08-29 19:47:00,66.6,64.8,29.56,NW,321,0.0,0.0,94,0.16,,---,1.22,VWS V13.01,2013-08-30 02:47:00,
2013-08-29 19:49:00,66.6,64.8,29.56,North,10,0.0,0.0,94,0.12,,---,1.22,VWS V13.01,2013-08-30 02:49:00,
2013-08-29 19:50:00,66.6,64.8,29.56,North,10,0.0,0.0,94,0.08,,---,1.22,VWS V13.01,2013-08-30 02:50:00,
2013-08-29 19:51:00,66.6,64.8,29.56,North,10,0.0,0.0,94,0.08,,---,1.22,VWS V13.01,2013-08-30 02:51:00,
2013-08-29 19:52:00,66.6,64.8,29.56,North,10,0.0,0.0,94,0.08,,---,1.22,VWS V13.01,2013-08-30 02:52:00,
2013-08-29 19:55:00,66.6,64.8,29.56,ENE,61,0.0,0.0,94,0.08,,---,1.22,VWS V13.01,2013-08-30 02:55:00,
2013-08-29 19:56:00,66.6,64.8,29.56,ENE,61,0.0,0.0,94,0.08,,---,1.22,VWS V13.01,2013-08-30 02:56:00,
2013-08-29 19:57:00,66.6,64.8,29.56,ENE,61,0.0,0.0,94,0.04,,---,1.22,VWS V13.01,2013-08-30 02:57:00,
2013-08-29 19:58:00,66.6,64.8,29.56,ENE,61,0.0,0.0,94,0.04,,---,1.22,VWS V13.01,2013-08-30 02:58:00,
2013-08-29 20:00:00,66.6,64.8,29.56,ENE,61,0.0,0.0,94,0.04,,---,1.22,VWS V13.01,2013-08-30 03:00:00,
2013-08-29 20:01:00,66.6,64.8,29.56,ENE,61,0.0,0.0,94,0.04,,---,1.22,VWS V13.01,2013-08-30 03:01:00,
2013-08-29 20:02:00,66.6,64.8,29.56,ENE,61,0.0,0.0,94,0.04,,---,1.22,VWS V13.01,2013-08-30 03:02:00,
2013-08-29 20:03:00,66.4,64.6,29.56,ENE,61,0.0,0.0,94,0.04,,---,1.22,VWS V13.01,2013-08-30 03:03:00,
2013-08-29 20:05:00,66.4,64.6,29.56,ENE,61,0.0,0.0,94,0.04,,---,1.22,VWS V13.01,2013-08-30 03:05:00,
2013-08-29 20:06:00,66.4,64.6,29.56,North,2,0.0,0.0,94,0.04,,---,1.22,VWS V13.01,2013-08-30 03:06:00,
2013-08-29 20:07:00,66.4,64.6,29.56,North,2,0.0,0.0,94,0.04,,---,1.22,VWS V13.01,2013-08-30 03:07:00,
2013-08-29 20:08:00,66.4,64.6,29.56,North,2,0.0,0.0,94,0.04,,---,1.22,VWS V13.01,2013-08-30 03:08:00,
2013-08-29 20:11:00,66.4,64.6,29.56,West,259,0.0,0.0,94,0.04,,---,1.22,VWS V13.01,2013-08-30 03:11:00,
2013-08-29 20:12:00,66.4,64.6,29.56,West,259,0.0,0.0,94,0.04,,---,1.22,VWS V13.01,2013-08-30 03:12:00,
2013-08-29 20:13:00,66.2,64.4,29.56,West,259,0.0,0.0,94,0.04,,---,1.22,VWS V13.01,2013-08-30 03:13:00,
2013-08-29 20:16:00,66.2,64.4,29.56,West,259,0.0,0.0,94,0.00,,---,1.22,VWS V13.01,2013-08-30 03:16:00,
2013-08-29 20:17:00,66.2,64.4,29.56,West,259,0.0,0.0,94,0.00,,---,1.22,VWS V13.01,2013-08-30 03:17:00,
2013-08-29 20:19:00,66.2,64.4,29.56,West,259,0.0,0.0,94,0.00,,---,1.22,VWS V13.01,2013-08-30 03:19:00,
2013-08-29 20:22:00,66.2,64.4,29.56,West,259,0.0,0.0,94,0.00,,---,1.22,VWS V13.01,2013-08-30 03:22:00,
2013-08-29 20:23:00,66.2,64.4,29.56,West,259,0.0,0.0,94,0.00,,---,1.22,VWS V13.01,2013-08-30 03:23:00,
2013-08-29 20:24:00,66.4,64.6,29.56,West,259,0.0,0.0,94,0.00,,---,1.22,VWS V13.01,2013-08-30 03:24:00,
2013-08-29 20:27:00,66.4,64.6,29.56,West,259,0.0,0.0,94,0.00,,---,1.22,VWS V13.01,2013-08-30 03:27:00,
2013-08-29 20:28:00,66.4,64.6,29.56,West,259,0.0,0.0,94,0.00,,---,1.22,VWS V13.01,2013-08-30 03:28:00,
2013-08-29 20:30:00,66.4,64.6,29.56,West,259,0.0,0.0,94,0.00,,---,1.22,VWS V13.01,2013-08-30 03:30:00,
2013-08-29 20:32:00,66.2,64.4,29.56,West,259,0.0,0.0,94,0.00,,---,1.22,VWS V13.01,2013-08-30 03:32:00,
2013-08-29 20:33:00,66.2,64.4,29.56,West,259,0.0,0.0,94,0.00,,---,1.22,VWS V13.01,2013-08-30 03:33:00,
2013-08-29 20:35:00,66.2,64.4,29.56,West,259,0.0,0.0,94,0.00,,---,1.22,VWS V13.01,2013-08-30 03:35:00,
2013-08-29 20:37:00,66.2,64.4,29.56,West,259,0.0,0.0,94,0.00,,---,1.22,VWS V13.01,2013-08-30 03:37:00,
2013-08-29 20:38:00,66.2,64.4,29.56,West,259,0.0,0.0,94,0.00,,---,1.22,VWS V13.01,2013-08-30 03:38:00,
2013-08-29 20:39:00,66.0,64.6,29.56,West,259,0.0,0.0,95,0.00,,---,1.22,VWS V13.01,2013-08-30 03:39:00,
2013-08-29 20:41:00,66.0,64.6,29.56,West,259,0.0,0.0,95,0.00,,---,1.22,VWS V13.01,2013-08-30 03:41:00,
2013-08-29 20:42:00,66.0,64.6,29.56,West,259,0.0,0.0,95,0.00,,---,1.22,VWS V13.01,2013-08-30 03:42:00,
2013-08-29 20:43:00,66.0,64.6,29.56,West,259,0.0,0.0,95,0.00,,---,1.22,VWS V13.01,2013-08-30 03:43:00,
2013-08-29 20:45:00,66.0,64.6,29.56,West,259,0.0,0.0,95,0.00,,---,1.22,VWS V13.01,2013-08-30 03:45:00,
2013-08-29 20:47:00,66.2,64.4,29.56,West,259,0.0,0.0,94,0.00,,---,1.22,VWS V13.01,2013-08-30 03:47:00,
2013-08-29 20:48:00,66.2,64.4,29.59,West,259,0.0,0.0,94,0.00,,---,1.22,VWS V13.01,2013-08-30 03:48:00,
2013-08-29 20:50:00,66.2,64.4,29.59,West,259,0.0,0.0,94,0.00,,---,1.22,VWS V13.01,2013-08-30 03:50:00,
2013-08-29 20:52:00,66.2,64.4,29.59,West,259,0.0,0.0,94,0.00,,---,1.22,VWS V13.01,2013-08-30 03:52:00,
2013-08-29 20:53:00,66.2,64.4,29.59,West,259,0.0,0.0,94,0.00,,---,1.22,VWS V13.01,2013-08-30 03:53:00,
2013-08-29 20:56:00,66.2,64.4,29.59,West,259,0.0,0.0,94,0.00,,---,1.22,VWS V13.01,2013-08-30 03:56:00,
2013-08-29 20:57:00,66.2,64.4,29.59,West,259,0.0,0.0,94,0.00,,---,1.22,VWS V13.01,2013-08-30 03:57:00,
2013-08-29 20:58:00,66.2,64.4,29.59,West,259,0.0,0.0,94,0.00,,---,1.22,VWS V13.01,2013-08-30 03:58:00,
2013-08-29 21:01:00,66.2,64.4,29.59,West,259,0.0,0.0,94,0.00,,---,1.22,VWS V13.01,2013-08-30 04:01:00,
2013-08-29 21:02:00,66.2,64.4,29.59,West,259,0.0,0.0,94,0.00,,---,1.22,VWS V13.01,2013-08-30 04:02:00,
2013-08-29 21:06:00,66.2,64.4,29.59,West,259,0.0,0.0,94,0.00,,---,1.22,VWS V13.01,2013-08-30 04:06:00,
2013-08-29 21:07:00,66.2,64.4,29.59,West,259,0.0,0.0,94,0.00,,---,1.22,VWS V13.01,2013-08-30 04:07:00,
2013-08-29 21:11:00,66.0,64.6,29.59,West,259,0.0,0.0,95,0.00,,---,1.22,VWS V13.01,2013-08-30 04:11:00,
2013-08-29 21:12:00,66.0,64.6,29.59,West,259,0.0,0.0,95,0.00,,---,1.22,VWS V13.01,2013-08-30 04:12:00,
2013-08-29 21:16:00,65.8,64.4,29.59,West,259,0.0,0.0,95,0.00,,---,1.22,VWS V13.01,2013-08-30 04:16:00,
2013-08-29 21:17:00,65.8,64.4,29.59,West,259,0.0,0.0,95,0.00,,---,1.22,VWS V13.01,2013-08-30 04:17:00,
2013-08-29 21:21:00,65.8,64.4,29.59,West,259,0.0,0.0,95,0.00,,---,1.22,VWS V13.01,2013-08-30 04:21:00,
2013-08-29 21:22:00,65.8,64.4,29.59,West,259,0.0,0.0,95,0.00,,---,1.22,VWS V13.01,2013-08-30 04:22:00,
2013-08-29 21:26:00,66.0,64.6,29.59,West,259,0.0,0.0,95,0.00,,---,1.22,VWS V13.01,2013-08-30 04:26:00,
2013-08-29 21:27:00,66.0,64.6,29.59,West,259,0.0,0.0,95,0.00,,---,1.22,VWS V13.01,2013-08-30 04:27:00,
2013-08-29 21:28:00,66.0,64.6,29.59,West,259,0.0,0.0,95,0.00,,---,1.22,VWS V13.01,2013-08-30 04:28:00,
2013-08-29 21:31:00,66.0,64.6,29.59,West,259,0.0,0.0,95,0.00,,---,1.22,VWS V13.01,2013-08-30 04:31:00,
2013-08-29 21:32:00,66.0,64.6,29.59,West,259,0.0,0.0,95,0.00,,---,1.22,VWS V13.01,2013-08-30 04:32:00,
2013-08-29 21:33:00,66.0,64.6,29.59,West,259,0.0,0.0,95,0.00,,---,1.22,VWS V13.01,2013-08-30 04:33:00,
2013-08-29 21:34:00,66.0,64.6,29.59,West,259,0.0,0.0,95,0.00,,---,1.22,VWS V13.01,2013-08-30 04:34:00,
2013-08-29 21:36:00,66.0,64.6,29.59,West,259,0.0,0.0,95,0.00,,---,1.22,VWS V13.01,2013-08-30 04:36:00,
2013-08-29 21:37:00,66.0,64.6,29.59,West,259,0.0,0.0,95,0.00,,---,1.22,VWS V13.01,2013-08-30 04:37:00,
2013-08-29 21:38:00,66.0,64.6,29.59,West,259,0.0,0.0,95,0.00,,---,1.22,VWS V13.01,2013-08-30 04:38:00,
2013-08-29 21:39:00,66.0,64.6,29.59,West,259,0.0,0.0,95,0.00,,---,1.22,VWS V13.01,2013-08-30 04:39:00,
2013-08-29 21:41:00,66.0,64.6,29.59,West,259,0.0,0.0,95,0.00,,---,1.22,VWS V13.01,2013-08-30 04:41:00,
2013-08-29 21:42:00,66.0,64.6,29.59,West,259,0.0,0.0,95,0.00,,---,1.22,VWS V13.01,2013-08-30 04:42:00,
2013-08-29 21:43:00,66.0,64.6,29.59,West,259,0.0,0.0,95,0.00,,---,1.22,VWS V13.01,2013-08-30 04:43:00,
2013-08-29 21:44:00,65.8,64.4,29.59,West,259,0.0,0.0,95,0.00,,---,1.22,VWS V13.01,2013-08-30 04:44:00,
2013-08-29 21:46:00,65.8,64.4,29.59,West,259,0.0,0.0,95,0.00,,---,1.22,VWS V13.01,2013-08-30 04:46:00,
2013-08-29 21:47:00,65.8,64.4,29.59,West,259,0.0,0.0,95,0.00,,---,1.22,VWS V13.01,2013-08-30 04:47:00,
2013-08-29 21:48:00,65.8,64.4,29.59,West,259,0.0,0.0,95,0.00,,---,1.22,VWS V13.01,2013-08-30 04:48:00,
2013-08-29 21:49:00,65.8,64.4,29.59,West,259,0.0,0.0,95,0.00,,---,1.22,VWS V13.01,2013-08-30 04:49:00,
2013-08-29 21:51:00,65.8,64.4,29.59,West,259,0.0,0.0,95,0.00,,---,1.22,VWS V13.01,2013-08-30 04:51:00,
2013-08-29 21:52:00,66.0,64.6,29.59,West,259,0.0,0.0,95,0.00,,---,1.22,VWS V13.01,2013-08-30 04:52:00,
2013-08-29 21:53:00,66.0,64.6,29.59,South,190,0.0,0.0,95,0.00,,---,1.22,VWS V13.01,2013-08-30 04:53:00,
2013-08-29 21:55:00,66.0,64.6,29.59,South,190,0.0,0.0,95,0.00,,---,1.22,VWS V13.01,2013-08-30 04:55:00,
2013-08-29 21:56:00,66.0,64.6,29.59,South,190,0.0,0.0,95,0.00,,---,1.22,VWS V13.01,2013-08-30 04:56:00,
2013-08-29 21:57:00,66.0,64.6,29.59,South,190,0.0,0.0,95,0.00,,---,1.22,VWS V13.01,2013-08-30 04:57:00,
2013-08-29 21:58:00,66.0,64.6,29.59,South,190,0.0,0.0,95,0.00,,---,1.22,VWS V13.01,2013-08-30 04:58:00,
2013-08-29 22:00:00,66.0,64.6,29.59,South,190,0.0,0.0,95,0.00,,---,1.22,VWS V13.01,2013-08-30 05:00:00,
2013-08-29 22:01:00,66.0,64.6,29.59,South,190,0.0,0.0,95,0.00,,---,1.22,VWS V13.01,2013-08-30 05:01:00,
2013-08-29 22:02:00,66.0,64.6,29.59,South,190,0.0,0.0,95,0.00,,---,1.22,VWS V13.01,2013-08-30 05:02:00,
2013-08-29 22:03:00,66.0,64.6,29.59,South,190,0.0,0.0,95,0.00,,---,1.22,VWS V13.01,2013-08-30 05:03:00,
2013-08-29 22:06:00,66.0,64.6,29.56,South,190,0.0,0.0,95,0.00,,---,1.22,VWS V13.01,2013-08-30 05:06:00,
2013-08-29 22:07:00,66.0,64.6,29.56,South,190,0.0,0.0,95,0.00,,---,1.22,VWS V13.01,2013-08-30 05:07:00,
2013-08-29 22:09:00,66.0,64.6,29.56,South,190,0.0,0.0,95,0.00,,---,1.22,VWS V13.01,2013-08-30 05:09:00,
2013-08-29 22:11:00,66.0,64.6,29.56,South,190,0.0,0.0,95,0.00,,---,1.22,VWS V13.01,2013-08-30 05:11:00,
2013-08-29 22:12:00,66.0,64.6,29.56,South,190,0.0,0.0,95,0.00,,---,1.22,VWS V13.01,2013-08-30 05:12:00,
2013-08-29 22:14:00,66.0,64.6,29.56,South,190,0.0,0.0,95,0.00,,---,1.22,VWS V13.01,2013-08-30 05:14:00,
2013-08-29 22:16:00,66.0,64.6,29.56,ESE,108,0.0,0.0,95,0.00,,---,1.22,VWS V13.01,2013-08-30 05:16:00,
2013-08-29 22:17:00,66.0,64.6,29.56,ESE,108,0.0,0.0,95,0.00,,---,1.22,VWS V13.01,2013-08-30 05:17:00,
2013-08-29 22:18:00,66.0,64.6,29.56,ESE,108,0.0,0.0,95,0.00,,---,1.22,VWS V13.01,2013-08-30 05:18:00,
2013-08-29 22:19:00,66.0,64.6,29.56,West,269,2.2,2.2,95,0.00,,---,1.22,VWS V13.01,2013-08-30 05:19:00,
2013-08-29 22:21:00,66.0,64.6,29.56,WNW,299,3.1,3.1,95,0.00,,---,1.22,VWS V13.01,2013-08-30 05:21:00,
2013-08-29 22:22:00,66.0,64.6,29.59,WNW,299,3.1,3.1,95,0.00,,---,1.22,VWS V13.01,2013-08-30 05:22:00,
2013-08-29 22:23:00,66.0,64.6,29.59,WNW,287,0.0,0.0,95,0.00,,---,1.22,VWS V13.01,2013-08-30 05:23:00,
2013-08-29 22:25:00,66.0,64.6,29.59,WNW,287,0.0,0.0,95,0.00,,---,1.22,VWS V13.01,2013-08-30 05:25:00,
2013-08-29 22:27:00,66.0,64.6,29.59,WNW,287,0.0,0.0,95,0.00,,---,1.22,VWS V13.01,2013-08-30 05:27:00,
2013-08-29 22:28:00,66.0,64.6,29.59,WNW,287,0.0,0.0,95,0.00,,---,1.22,VWS V13.01,2013-08-30 05:28:00,
2013-08-29 22:30:00,66.0,64.6,29.59,SE,145,0.0,0.0,95,0.00,,---,1.22,VWS V13.01,2013-08-30 05:30:00,
2013-08-29 22:32:00,65.8,64.4,29.59,SE,145,0.0,0.0,95,0.00,,---,1.22,VWS V13.01,2013-08-30 05:32:00,
2013-08-29 22:33:00,65.8,64.4,29.59,SE,145,0.0,0.0,95,0.00,,---,1.22,VWS V13.01,2013-08-30 05:33:00,
2013-08-29 22:35:00,65.8,64.4,29.59,SE,145,0.0,0.0,95,0.00,,---,1.22,VWS V13.01,2013-08-30 05:35:00,
2013-08-29 22:37:00,65.8,64.7,29.59,SE,145,0.0,0.0,96,0.00,,---,1.22,VWS V13.01,2013-08-30 05:37:00,
2013-08-29 22:38:00,65.8,64.7,29.59,SE,145,0.0,0.0,96,0.00,,---,1.22,VWS V13.01,2013-08-30 05:38:00,
2013-08-29 22:39:00,65.8,64.4,29.59,SE,145,0.0,0.0,95,0.00,,---,1.22,VWS V13.01,2013-08-30 05:39:00,
2013-08-29 22:40:00,66.0,64.6,29.59,SE,145,0.0,0.0,95,0.00,,---,1.22,VWS V13.01,2013-08-30 05:40:00,
2013-08-29 22:42:00,66.0,64.6,29.59,SE,145,0.0,0.0,95,0.00,,---,1.22,VWS V13.01,2013-08-30 05:42:00,
2013-08-29 22:43:00,66.0,64.6,29.59,SE,145,0.0,0.0,95,0.00,,---,1.22,VWS V13.01,2013-08-30 05:43:00,
2013-08-29 22:44:00,65.8,64.7,29.59,SE,145,0.0,0.0,96,0.00,,---,1.22,VWS V13.01,2013-08-30 05:44:00,
2013-08-29 22:46:00,65.8,64.7,29.59,SE,145,0.0,0.0,96,0.00,,---,1.22,VWS V13.01,2013-08-30 05:46:00,
2013-08-29 22:47:00,65.8,64.7,29.59,SE,145,0.0,0.0,96,0.00,,---,1.22,VWS V13.01,2013-08-30 05:47:00,
2013-08-29 22:48:00,65.8,64.7,29.59,SE,145,0.0,0.0,96,0.00,,---,1.22,VWS V13.01,2013-08-30 05:48:00,
2013-08-29 22:50:00,65.8,64.7,29.59,SE,145,0.0,0.0,96,0.00,,---,1.22,VWS V13.01,2013-08-30 05:50:00,
2013-08-29 22:51:00,65.8,64.7,29.59,SE,145,0.0,0.0,96,0.00,,---,1.22,VWS V13.01,2013-08-30 05:51:00,
2013-08-29 22:52:00,65.8,64.7,29.59,SE,145,0.0,0.0,96,0.00,,---,1.22,VWS V13.01,2013-08-30 05:52:00,
2013-08-29 22:53:00,65.8,64.7,29.59,SE,145,0.0,0.0,96,0.00,,---,1.22,VWS V13.01,2013-08-30 05:53:00,
2013-08-29 22:55:00,65.8,64.7,29.59,SE,145,0.0,0.0,96,0.00,,---,1.22,VWS V13.01,2013-08-30 05:55:00,
2013-08-29 22:57:00,65.8,64.7,29.59,SE,145,0.0,0.0,96,0.00,,---,1.22,VWS V13.01,2013-08-30 05:57:00,
2013-08-29 22:58:00,66.0,64.8,29.59,SE,145,0.0,0.0,96,0.00,,---,1.22,VWS V13.01,2013-08-30 05:58:00,
2013-08-29 22:59:00,66.0,64.8,29.59,SE,145,0.0,0.0,96,0.00,,---,1.22,VWS V13.01,2013-08-30 05:59:00,
2013-08-29 23:01:00,66.0,64.8,29.59,SE,145,0.0,0.0,96,0.00,,---,1.22,VWS V13.01,2013-08-30 06:01:00,
2013-08-29 23:02:00,66.0,64.8,29.59,SE,145,0.0,0.0,96,0.00,,---,1.22,VWS V13.01,2013-08-30 06:02:00,
2013-08-29 23:03:00,66.0,64.8,29.59,SE,145,0.0,0.0,96,0.00,,---,1.22,VWS V13.01,2013-08-30 06:03:00,
2013-08-29 23:04:00,66.0,64.8,29.59,SE,145,0.0,0.0,96,0.00,,---,1.22,VWS V13.01,2013-08-30 06:04:00,
2013-08-29 23:06:00,66.0,64.6,29.59,SE,145,0.0,0.0,95,0.00,,---,1.22,VWS V13.01,2013-08-30 06:06:00,
2013-08-29 23:08:00,66.0,64.6,29.59,SE,145,0.0,0.0,95,0.00,,---,1.22,VWS V13.01,2013-08-30 06:08:00,
2013-08-29 23:09:00,66.0,64.6,29.59,SE,145,0.0,0.0,95,0.00,,---,1.22,VWS V13.01,2013-08-30 06:09:00,
2013-08-29 23:11:00,66.0,64.8,29.59,WSW,237,0.0,0.0,96,0.00,,---,1.22,VWS V13.01,2013-08-30 06:11:00,
2013-08-29 23:13:00,66.0,64.8,29.59,SE,141,0.0,0.0,96,0.00,,---,1.22,VWS V13.01,2013-08-30 06:13:00,
2013-08-29 23:14:00,66.0,64.6,29.59,SE,141,0.0,0.0,95,0.00,,---,1.22,VWS V13.01,2013-08-30 06:14:00,
2013-08-29 23:16:00,66.0,64.6,29.59,SE,141,0.0,0.0,95,0.00,,---,1.22,VWS V13.01,2013-08-30 06:16:00,
2013-08-29 23:18:00,66.0,64.6,29.59,WNW,282,0.0,0.0,95,0.00,,---,1.22,VWS V13.01,2013-08-30 06:18:00,
2013-08-29 23:19:00,66.0,64.6,29.59,NE,40,0.0,0.0,95,0.00,,---,1.22,VWS V13.01,2013-08-30 06:19:00,
2013-08-29 23:21:00,65.8,64.4,29.59,NE,40,0.0,0.0,95,0.00,,---,1.22,VWS V13.01,2013-08-30 06:21:00,
2013-08-29 23:23:00,65.8,64.4,29.59,NE,40,0.0,0.0,95,0.00,,---,1.22,VWS V13.01,2013-08-30 06:23:00,
2013-08-29 23:24:00,65.8,64.4,29.59,NE,40,0.0,0.0,95,0.00,,---,1.22,VWS V13.01,2013-08-30 06:24:00,
2013-08-29 23:27:00,65.8,64.4,29.59,ENE,77,0.0,0.0,95,0.00,,---,1.22,VWS V13.01,2013-08-30 06:27:00,
2013-08-29 23:28:00,65.8,64.4,29.59,ENE,77,0.0,0.0,95,0.00,,---,1.22,VWS V13.01,2013-08-30 06:28:00,
2013-08-29 23:29:00,65.8,64.4,29.59,ENE,77,0.0,0.0,95,0.00,,---,1.22,VWS V13.01,2013-08-30 06:29:00,
2013-08-29 23:30:00,65.7,64.2,29.59,ENE,77,0.0,0.0,95,0.00,,---,1.22,VWS V13.01,2013-08-30 06:30:00,
2013-08-29 23:32:00,65.7,64.2,29.59,West,274,0.0,0.0,95,0.00,,---,1.22,VWS V13.01,2013-08-30 06:32:00,
2013-08-29 23:33:00,65.5,64.0,29.59,West,274,0.0,0.0,95,0.00,,---,1.22,VWS V13.01,2013-08-30 06:33:00,
2013-08-29 23:34:00,65.5,64.0,29.59,West,274,0.0,0.0,95,0.00,,---,1.22,VWS V13.01,2013-08-30 06:34:00,
2013-08-29 23:35:00,65.5,64.0,29.59,West,274,0.0,0.0,95,0.00,,---,1.22,VWS V13.01,2013-08-30 06:35:00,
2013-08-29 23:37:00,65.5,64.0,29.59,West,274,0.0,0.0,95,0.00,,---,1.22,VWS V13.01,2013-08-30 06:37:00,
2013-08-29 23:38:00,65.5,64.0,29.59,West,274,0.0,0.0,95,0.00,,---,1.22,VWS V13.01,2013-08-30 06:38:00,
2013-08-29 23:39:00,65.5,64.0,29.59,West,274,0.0,0.0,95,0.00,,---,1.22,VWS V13.01,2013-08-30 06:39:00,
2013-08-29 23:40:00,65.5,64.0,29.59,West,274,0.0,0.0,95,0.00,,---,1.22,VWS V13.01,2013-08-30 06:40:00,
2013-08-29 23:42:00,65.5,64.0,29.59,West,274,0.0,0.0,95,0.00,,---,1.22,VWS V13.01,2013-08-30 06:42:00,
2013-08-29 23:43:00,65.5,64.0,29.59,West,274,0.0,0.0,95,0.00,,---,1.22,VWS V13.01,2013-08-30 06:43:00,
2013-08-29 23:44:00,65.5,64.0,29.59,SSW,212,0.0,0.0,95,0.00,,---,1.22,VWS V13.01,2013-08-30 06:44:00,
2013-08-29 23:45:00,65.5,64.0,29.59,SSW,212,0.0,0.0,95,0.00,,---,1.22,VWS V13.01,2013-08-30 06:45:00,
2013-08-29 23:47:00,65.5,64.0,29.59,SSW,212,0.0,0.0,95,0.00,,---,1.22,VWS V13.01,2013-08-30 06:47:00,
2013-08-29 23:48:00,65.5,64.0,29.59,SSW,212,0.0,0.0,95,0.00,,---,1.22,VWS V13.01,2013-08-30 06:48:00,
2013-08-29 23:49:00,65.5,64.0,29.59,SSW,212,0.0,0.0,95,0.00,,---,1.22,VWS V13.01,2013-08-30 06:49:00,
2013-08-29 23:51:00,65.5,64.0,29.59,SSW,212,0.0,0.0,95,0.00,,---,1.22,VWS V13.01,2013-08-30 06:51:00,
2013-08-29 23:52:00,65.5,64.0,29.59,SSW,212,0.0,0.0,95,0.00,,---,1.22,VWS V13.01,2013-08-30 06:52:00,
2013-08-29 23:53:00,65.5,64.0,29.59,SSW,212,0.0,0.0,95,0.00,,---,1.22,VWS V13.01,2013-08-30 06:53:00,
2013-08-29 23:54:00,65.5,64.0,29.59,SSW,212,0.0,0.0,95,0.04,,---,1.26,VWS V13.01,2013-08-30 06:54:00,
2013-08-29 23:55:00,65.5,64.0,29.59,SSW,212,0.0,0.0,95,0.04,,---,1.26,VWS V13.01,2013-08-30 06:55:00,
2013-08-29 23:56:00,65.3,63.8,29.59,SSW,212,0.0,0.0,95,0.04,,---,1.26,VWS V13.01,2013-08-30 06:56:00,
2013-08-29 23:58:00,65.3,63.8,29.59,SSW,212,0.0,0.0,95,0.04,,---,1.26,VWS V13.01,2013-08-30 06:58:00,
2013-08-29 23:59:00,65.3,63.8,29.59,SSW,212,0.0,0.0,95,0.04,,---,1.26,VWS V13.01,2013-08-30 06:59:00,